GFSNE_700_rhum_000.txt.gz
RH
6 5 5 4 5 5 6 9 18 20 12 4 8 10 17 15 14 13 11 10 9 8 23 46 57 54 50 39 37 33 31 43 54 96 99 99 98 99
4 4 5 6 6 8 10 13 20 30 32 11 9 10 11 16 17 16 13 11 9 9 9 12 20 24 25 18 19 37 40 35 36 39 58 89 99 97
5 6 7 9 10 12 15 16 16 20 56 14 20 11 12 15 15 16 16 14 11 8 8 7 7 8 9 10 10 9 10 19 32 37 46 67 79 92
6 7 8 11 14 16 16 15 16 19 86 89 42 21 18 28 64 52 20 23 14 10 8 7 6 6 6 6 6 6 5 6 11 29 34 65 61 68
5 5 9 14 15 15 14 13 17 43 84 87 78 81 83 80 85 84 90 74 31 21 11 9 7 6 6 18 18 7 4 4 5 32 39 60 69 71
5 7 9 10 10 10 11 14 43 69 62 92 85 81 76 61 63 53 53 50 78 81 27 27 44 62 48 34 38 29 26 6 4 22 54 40 44 85
6 7 8 9 10 12 16 20 36 84 92 87 82 81 66 52 52 72 71 54 68 90 85 74 65 82 92 92 81 72 63 24 9 19 36 50 35 65
7 8 9 10 14 18 24 45 51 100 100 95 80 88 49 52 44 39 88 84 71 54 84 82 79 65 46 66 66 81 82 62 27 20 20 25 69 79
9 11 12 16 20 25 30 40 100 94 85 97 100 62 48 42 44 51 88 76 58 64 91 48 54 65 75 74 85 82 96 83 55 35 28 25 57 76
11 14 17 21 27 34 48 90 90 55 54 58 46 50 47 32 54 52 55 62 72 81 100 78 85 87 94 81 91 94 99 99 74 54 53 45 39 37
13 19 30 36 41 58 100 100 72 38 40 38 42 48 34 35 44 58 59 98 86 91 97 95 96 95 93 96 98 96 96 89 74 64 55 48 51 43
21 28 35 35 39 100 98 97 59 41 36 34 40 34 32 35 45 78 97 99 100 92 97 95 96 95 83 96 96 96 99 94 73 62 54 50 50 45
25 29 35 50 72 50 50 63 53 45 41 46 37 30 33 39 64 92 97 96 97 93 97 96 91 93 95 80 96 97 98 100 99 84 72 65 79 60
31 38 45 49 50 54 53 52 48 50 53 44 36 32 38 75 92 96 95 94 93 86 92 100 97 97 95 89 89 97 98 98 100 100 100 100 100 100
42 91 46 51 59 54 53 52 55 58 48 40 33 60 94 95 95 92 89 92 92 97 100 100 97 96 94 91 93 96 99 99 97 96 99 99 97 99
73 49 51 57 58 58 53 55 60 52 46 55 91 95 97 98 98 100 97 100 100 99 97 97 97 96 95 95 96 96 98 100 96 97 97 97 97 98
58 49 54 59 57 54 54 58 50 40 60 98 98 97 98 97 99 100 99 97 97 96 96 96 96 96 96 96 96 97 96 97 97 97 96 96 97 97
52 58 64 63 59 55 54 46 39 67 98 98 99 99 97 98 97 97 97 97 97 97 96 96 96 96 96 96 97 97 96 96 97 97 96 96 96 96
61 68 65 62 58 56 54 46 58 98 97 99 98 98 98 98 97 97 97 97 97 97 96 97 96 96 96 97 97 96 96 96 96 96 96 96 96 95
70 68 65 62 58 58 51 74 97 98 98 98 98 97 97 97 96 97 97 96 97 97 96 96 96 97 97 96 95 95 97 96 96 95 94 95 95 96
69 66 63 60 61 58 90 98 98 98 97 97 97 97 97 97 97 97 97 96 96 96 96 95 95 95 95 96 97 95 96 96 96 97 96 96 95 85
71 64 59 62 63 95 98 98 97 97 97 97 93 83 83 77 84 90 90 81 77 73 71 70 77 86 90 88 59 41 36 37 39 36 27 23 25 30
67 58 60 66 98 98 98 97 97 96 66 54 86 96 96 97 97 98 98 98 99 98 98 98 98 95 86 75 75 74 77 76 74 72 69 68 66 67

GFSNE_700_rhum_003.txt.gz
RH
6 6 6 5 5 4 4 5 12 9 3 3 6 7 11 15 25 15 13 13 16 13 11 30 26 15 13 18 39 73 83 80 86 90 95 98 93 97
6 6 6 5 5 5 5 6 12 20 22 5 6 6 9 16 23 28 16 16 16 30 37 28 25 14 17 13 15 23 43 54 51 59 63 67 83 85
6 6 6 6 6 6 6 6 8 15 67 8 19 8 8 15 18 32 48 66 51 45 41 76 46 71 33 16 13 10 11 21 28 22 17 41 50 56
6 6 6 6 6 6 7 8 10 13 41 67 15 17 23 31 55 73 69 64 57 64 61 100 96 65 97 76 22 43 13 7 5 6 5 5 8 11
7 6 6 6 6 7 8 11 16 22 53 89 49 49 69 81 72 71 58 38 40 43 48 70 71 100 78 88 98 79 88 66 11 5 3 2 2 3
7 6 6 6 6 7 10 17 40 40 60 96 98 90 93 72 86 80 41 34 30 33 34 34 48 96 86 99 99 100 100 66 47 13 9 6 5 6
7 6 5 5 6 9 25 42 61 79 73 95 99 100 85 53 48 44 47 37 27 33 41 52 68 94 91 94 94 99 100 84 55 36 22 15 7 4
7 6 4 5 9 14 24 44 100 100 100 100 100 100 63 49 44 46 52 49 27 28 58 49 72 73 73 71 59 62 61 80 82 78 93 80 19 8
6 5 6 9 17 24 25 34 87 100 100 100 99 80 74 47 52 48 44 39 39 39 63 54 97 92 100 94 92 81 79 68 41 51 79 88 45 14
6 7 13 18 24 28 45 82 100 80 70 73 74 52 49 50 60 46 41 39 39 38 72 95 96 93 96 95 96 99 97 70 76 54 43 49 39 15
8 14 22 25 27 66 100 97 43 40 44 46 48 47 52 54 47 50 39 52 50 66 82 99 90 94 95 94 96 95 92 93 77 87 71 38 34 15
12 18 25 29 47 96 98 53 48 47 44 39 42 49 50 41 44 63 84 92 94 78 78 91 90 96 90 85 93 96 94 88 75 82 82 76 63 62
16 21 26 35 90 92 70 56 60 61 49 54 52 44 36 36 55 90 98 100 96 93 95 98 90 90 94 88 94 95 96 97 98 100 86 90 80 74
26 30 33 81 67 48 55 54 56 58 61 55 43 33 37 74 86 90 96 99 100 100 99 100 98 95 93 85 87 96 97 97 98 100 94 96 100 93
36 39 49 53 51 54 56 57 59 65 58 45 38 62 91 90 94 99 95 98 96 97 99 100 100 96 96 88 88 95 96 97 97 99 99 100 97 95
39 45 52 53 59 60 57 57 64 58 58 84 97 95 95 97 98 99 97 98 97 96 98 97 97 97 96 95 94 98 96 96 96 97 95 96 98 99
53 55 57 60 58 55 56 60 53 57 90 97 97 96 97 98 98 98 98 97 98 97 97 97 97 97 96 97 98 99 96 96 95 96 96 96 98 98
63 70 68 65 61 59 58 50 63 96 98 98 98 98 97 98 98 98 98 98 97 97 97 97 97 96 97 97 98 97 96 96 96 96 96 97 97 97
74 74 69 66 63 63 62 85 96 98 98 98 98 98 98 98 98 97 98 98 98 97 96 97 97 97 96 97 96 96 96 96 96 96 96 97 96 96
78 73 69 66 67 70 95 97 98 98 98 97 98 98 97 96 97 97 97 97 97 96 97 97 96 98 97 96 96 97 97 96 96 95 96 97 96 95
76 72 69 69 80 98 98 98 98 97 97 97 97 96 96 97 97 96 97 96 94 94 96 97 96 95 97 97 96 96 96 97 96 96 96 96 96 96
76 69 66 85 99 98 98 98 97 96 96 98 100 100 100 98 96 97 96 97 96 96 86 83 93 96 95 97 96 96 96 96 96 96 96 97 96 95
72 64 81 98 98 98 98 92 90 97 100 100 100 86 82 87 97 100 99 99 99 98 97 96 92 83 88 92 94 95 96 96 96 96 94 66 59 83

GFSNE_700_rhum_006.txt.gz
RH
7 6 6 7 8 8 8 7 6 6 8 6 4 3 3 6 8 17 19 6 7 7 8 10 12 11 11 33 26 9 10 16 19 20 44 70 91 94
6 5 6 7 8 8 7 6 6 8 6 3 2 4 5 8 9 19 26 18 15 24 36 40 36 62 64 65 83 72 26 11 17 17 16 20 39 77
6 5 6 7 7 7 6 6 5 6 10 3 6 7 8 11 11 15 32 61 58 45 47 40 29 37 56 67 44 55 89 90 38 24 15 15 45 50
5 6 7 8 8 7 6 5 5 6 15 15 11 15 19 18 20 24 30 55 68 68 65 34 27 26 27 30 24 34 80 85 93 78 79 55 35 32
7 8 8 8 8 7 5 5 7 11 18 42 28 27 28 42 52 36 36 41 38 37 33 29 31 32 27 23 24 25 67 98 98 96 88 53 14 9
9 9 9 8 8 6 6 8 16 25 34 60 76 73 80 71 100 84 48 39 29 31 30 33 32 29 30 58 72 72 86 97 96 98 99 62 24 9
11 11 10 9 7 8 18 27 36 50 92 100 100 100 97 64 55 54 48 35 29 39 33 26 34 35 39 46 58 67 76 82 96 98 98 81 32 14
13 11 10 9 9 12 21 28 68 100 100 100 100 88 60 63 50 51 50 43 34 42 38 30 37 34 44 63 79 78 85 82 85 95 95 88 50 19
13 12 11 11 15 19 23 30 92 100 100 100 98 64 60 67 74 60 53 49 36 33 45 34 52 66 82 89 94 93 92 94 88 82 81 60 40 22
14 13 13 13 20 30 55 94 99 99 75 66 63 79 82 74 73 64 54 42 36 45 84 71 68 71 83 95 96 96 98 100 98 91 75 48 10 7
15 15 17 20 32 78 100 100 100 61 56 61 56 58 62 62 57 70 71 87 58 72 85 93 81 80 87 95 96 97 97 97 94 93 76 68 62 19
16 17 23 35 42 92 100 100 72 59 58 48 51 52 50 46 71 100 100 100 92 78 88 94 86 86 78 78 96 97 98 98 95 93 84 60 58 62
21 22 28 37 71 97 98 85 73 87 57 60 55 41 43 80 95 100 100 100 100 93 100 100 99 90 95 85 83 97 100 100 100 100 86 85 86 87
34 33 38 55 75 66 61 65 64 63 64 55 46 69 93 94 97 100 100 100 100 100 100 100 100 99 94 83 80 95 100 100 98 97 97 97 99 93
40 46 49 62 66 64 66 66 67 66 61 75 94 96 100 100 100 97 98 99 99 98 98 99 98 95 96 88 83 95 100 96 96 95 96 98 94 98
49 60 64 69 69 73 64 62 65 87 100 100 97 99 99 99 99 99 97 98 97 96 98 97 96 98 96 94 94 98 97 96 96 96 91 100 89 89
71 64 69 72 67 60 60 70 100 99 97 99 99 98 98 97 98 98 98 98 98 98 97 98 96 95 95 97 97 98 96 97 96 97 93 96 99 98
65 76 76 71 64 65 82 96 99 99 99 99 98 97 96 97 97 97 98 98 100 99 97 98 98 98 97 98 97 97 96 97 95 96 97 96 96 98
74 75 73 67 68 92 99 99 97 99 99 98 97 97 98 98 97 97 97 98 99 97 98 98 96 96 97 96 97 96 97 96 96 95 97 97 97 97
70 73 69 67 95 98 99 98 98 98 98 97 97 98 97 96 95 96 96 96 97 96 97 98 96 97 98 97 97 97 97 96 97 96 96 97 95 96
68 68 67 94 99 99 99 98 98 97 97 100 100 100 99 97 96 97 97 97 96 96 96 97 96 94 97 97 95 96 100 98 97 97 96 96 95 96
67 63 93 99 100 98 98 98 98 100 100 100 100 84 78 92 98 100 99 97 98 96 95 94 96 95 96 97 96 96 97 98 98 98 97 97 96 95
62 89 99 99 98 98 97 97 99 100 100 100 90 81 88 97 95 97 100 96 91 97 98 96 94 96 96 96 97 96 96 96 97 99 97 99 98 96

GFSNE_700_rhum_009.txt.gz
RH
18 20 19 15 10 6 6 8 8 8 9 11 10 9 6 5 6 10 11 12 12 12 10 12 82 99 100 93 80 100 100 100 100 100 100 85 32 65
21 18 14 10 8 8 8 8 8 8 8 10 8 6 6 6 9 15 21 23 20 20 21 24 94 86 44 43 100 75 77 100 98 100 94 66 94 71
20 17 13 12 11 11 10 10 9 8 7 9 7 7 7 9 9 14 24 37 38 30 41 33 29 29 27 24 23 26 38 74 100 100 100 92 88 90
19 17 17 18 18 15 12 11 9 8 10 10 7 9 10 10 17 24 34 36 52 54 53 37 30 27 25 24 29 40 44 72 76 100 84 90 99 99
22 26 27 24 20 16 13 11 10 10 12 19 16 23 31 66 60 58 46 42 42 40 39 39 36 34 34 31 25 22 33 68 38 26 78 94 95 98
30 28 25 20 17 14 12 12 13 16 19 30 60 89 97 74 85 67 42 39 36 36 43 46 43 36 33 34 33 29 23 22 63 73 68 88 93 96
29 25 21 18 15 14 15 15 18 22 39 96 100 98 79 69 60 50 49 44 35 46 44 32 34 34 33 37 41 44 46 67 56 65 76 84 89 95
28 24 20 17 15 16 18 23 30 75 100 100 100 89 83 60 58 68 78 60 38 41 41 24 48 39 54 63 66 73 82 73 70 82 89 91 70 85
25 20 17 16 18 18 18 22 41 95 100 100 100 85 57 69 98 89 58 50 43 43 83 53 80 70 74 72 76 84 88 88 90 82 66 60 60 57
16 14 15 16 19 26 34 55 98 100 99 91 72 62 83 92 71 66 67 91 90 87 98 86 84 74 77 74 84 94 96 96 98 98 100 88 66 46
11 14 19 22 26 35 88 100 97 79 66 59 54 61 63 63 78 99 99 100 90 88 92 93 86 79 77 64 70 88 97 99 98 95 92 79 63 38
11 16 21 33 38 84 100 98 70 68 57 54 55 55 69 100 100 100 100 98 97 87 95 98 91 91 66 62 70 89 96 98 96 96 96 90 82 67
16 17 24 39 87 97 79 75 73 65 59 62 67 93 98 98 99 100 100 100 99 95 99 100 94 93 93 78 74 89 94 96 96 96 97 97 86 70
28 37 41 79 71 72 72 70 66 66 78 95 96 98 96 96 97 99 99 100 100 100 100 100 99 100 97 85 84 95 96 96 96 96 96 96 96 79
45 47 56 68 69 67 68 68 80 97 96 92 97 99 99 99 100 97 99 98 98 97 98 98 97 97 97 90 90 97 96 97 97 96 97 96 98 99
51 51 62 68 72 69 66 91 100 98 98 97 97 98 98 98 98 97 96 95 96 96 98 98 98 97 96 94 96 98 96 96 96 94 96 94 86 89
52 57 62 65 60 66 93 98 99 99 97 98 98 98 98 97 97 97 96 96 97 95 97 98 97 98 97 96 97 97 97 97 94 95 96 98 93 82
54 62 64 61 70 93 94 95 98 97 97 98 99 98 96 97 96 97 98 97 96 97 98 98 97 97 98 97 96 97 97 96 96 97 96 96 95 97
57 61 61 69 93 96 97 97 96 98 99 100 100 100 98 99 98 97 96 96 98 98 98 97 96 97 98 97 96 93 97 96 96 96 96 97 97 95
57 61 70 94 97 97 97 98 97 97 96 97 100 99 87 94 100 97 95 96 97 98 96 97 96 96 98 96 93 97 98 97 96 96 96 96 96 98
56 72 96 97 97 98 99 100 100 98 98 100 99 95 93 96 96 98 100 99 98 97 96 96 95 95 97 97 94 99 100 99 97 96 96 96 96 97
64 95 97 99 98 99 100 99 98 99 100 100 100 100 100 99 89 95 100 96 87 98 97 96 96 93 97 97 96 96 96 99 99 98 97 97 96 95
90 97 99 98 99 99 94 96 98 100 100 100 100 100 99 95 100 100 100 98 94 94 99 97 96 95 95 96 96 95 98 97 98 99 89 100 96 97

GFSNE_700_rhum_012.txt.gz
RH
17 17 17 18 18 18 18 18 20 20 14 18 20 19 13 10 9 8 9 9 9 9 12 17 18 18 30 100 84 99 100 94 100 100 100 100 98 100
18 18 19 19 20 22 25 26 26 23 23 20 22 17 12 10 10 10 11 12 13 14 21 23 22 48 100 100 100 100 97 100 100 100 98 100 100 98
20 20 21 21 22 24 26 26 24 19 16 22 18 14 12 11 10 12 17 31 42 31 28 27 29 66 66 65 90 100 100 100 100 95 95 90 100 96
20 21 21 23 26 28 28 26 23 18 16 15 15 13 12 11 12 12 17 26 49 41 34 35 38 34 38 41 35 45 86 100 100 83 88 96 95 88
21 21 25 28 28 28 26 22 19 17 17 20 16 15 17 41 38 31 33 37 39 36 36 43 42 41 41 39 83 95 71 45 26 39 46 43 46 64
23 28 29 26 22 19 18 17 18 20 21 26 51 41 76 100 93 78 42 37 35 36 39 35 29 30 32 33 30 29 29 30 30 31 30 25 40 76
29 24 18 16 13 12 17 19 23 26 49 89 84 96 100 82 71 62 48 42 38 42 34 27 37 40 43 48 44 40 42 44 40 37 49 68 91 90
19 16 12 7 7 10 15 19 26 77 100 99 100 96 84 77 57 54 56 50 35 35 64 62 79 68 72 72 69 66 64 64 58 60 66 58 48 57
15 10 7 7 10 12 13 20 36 86 100 100 96 82 60 59 64 63 56 64 74 69 88 78 80 73 76 77 78 74 68 64 74 86 80 77 68 67
10 7 8 9 12 19 32 68 100 81 79 77 65 62 65 66 71 89 92 90 84 81 98 94 73 77 83 77 78 78 76 77 81 94 98 100 99 93
8 8 12 17 27 41 98 80 58 60 61 57 56 59 77 96 99 99 93 97 86 78 96 90 78 80 83 71 72 83 86 88 95 96 96 95 96 98
7 10 22 33 42 82 65 59 58 56 50 49 65 90 100 100 100 100 100 97 93 73 94 96 84 91 85 72 76 84 74 85 97 96 97 97 99 98
13 21 30 42 51 55 62 61 58 61 66 86 91 98 98 98 98 99 100 100 94 86 97 100 91 95 99 83 78 80 83 96 99 98 97 97 97 97
27 33 41 49 55 60 61 58 69 90 92 92 96 95 93 94 96 96 98 98 100 100 98 100 97 99 94 84 88 99 96 100 97 98 97 97 97 98
36 38 46 52 58 58 61 90 98 93 91 89 90 95 97 97 97 95 97 97 97 97 98 98 98 99 98 96 98 95 97 99 97 96 97 97 97 100
36 40 49 56 59 64 92 96 95 96 96 95 94 96 96 96 96 95 95 95 94 97 98 98 99 98 98 97 97 98 98 91 94 95 96 99 100 94
38 43 50 52 61 84 89 98 98 97 95 96 95 93 91 83 96 97 97 97 97 95 94 98 97 97 96 97 97 97 92 94 96 97 97 99 99 90
41 49 53 67 86 88 91 92 97 94 95 95 97 97 88 88 95 98 98 97 95 95 96 96 96 97 97 97 89 86 95 96 97 96 97 96 94 99
49 55 69 88 89 94 96 95 92 95 96 100 100 99 100 100 99 98 96 96 97 94 97 96 96 96 97 95 96 100 97 97 96 96 97 97 98 97
52 67 88 91 94 95 96 95 94 96 97 98 100 100 100 99 98 99 93 95 96 96 97 96 96 95 97 96 96 99 98 97 96 96 95 97 95 97
61 92 94 94 95 96 96 96 97 97 99 100 100 100 100 98 100 99 98 100 100 96 96 97 95 94 97 98 96 94 95 97 97 97 96 95 96 96
81 95 95 95 96 96 97 99 100 100 100 100 100 100 100 100 100 99 98 99 96 97 95 96 94 94 98 96 93 94 93 94 96 96 97 96 94 96
91 94 95 96 95 94 96 97 99 100 99 100 100 100 100 97 98 100 100 100 100 97 97 96 96 95 96 96 93 90 94 93 94 95 90 96 96 96

GFSNE_700_rhum_015.txt.gz
RH
17 17 16 16 15 15 17 19 20 11 6 8 13 17 23 24 22 19 16 14 13 12 11 10 11 11 10 9 8 9 23 52 98 98 100 92 98 98
18 17 17 15 14 15 18 21 24 23 14 12 14 17 18 18 18 16 17 17 19 21 23 26 20 18 15 15 20 26 46 98 99 100 100 100 99 99
19 17 15 13 14 18 20 19 18 18 16 13 11 9 8 10 13 18 25 32 55 53 56 39 28 25 28 57 98 96 87 83 100 84 93 97 92 88
17 15 14 17 18 18 17 17 14 10 10 8 5 4 7 10 14 18 23 48 99 98 58 39 33 34 40 44 37 40 71 77 88 93 96 96 98 92
16 17 20 20 19 18 17 13 8 6 8 15 11 11 12 20 28 32 51 70 73 62 42 46 48 45 39 32 27 28 49 73 89 94 88 60 46 64
22 22 22 20 19 17 12 8 7 8 12 16 16 34 55 55 72 94 64 60 50 45 46 41 37 38 48 50 43 34 30 28 28 28 28 27 25 23
22 24 22 20 16 10 8 8 11 18 26 40 53 79 76 72 73 68 57 46 42 46 66 70 75 71 68 73 76 72 69 56 40 34 33 31 32 33
25 23 22 16 10 7 10 17 29 60 75 100 94 84 67 67 57 53 58 79 69 70 83 69 81 73 68 72 71 72 71 68 68 63 55 48 48 79
25 23 16 9 8 12 20 28 61 50 67 87 71 58 56 58 82 90 88 83 73 79 100 72 80 69 74 74 79 82 80 72 64 61 64 63 63 67
23 15 8 7 15 27 32 46 44 52 58 52 52 63 87 100 100 96 88 84 78 86 100 85 77 77 80 81 87 93 85 70 65 63 62 67 73 94
17 9 8 18 28 34 42 43 46 48 44 55 80 90 94 97 100 97 90 92 77 77 97 89 81 81 77 79 85 91 88 73 63 58 72 93 97 99
10 7 17 28 32 38 45 46 42 46 66 72 80 88 98 100 100 100 97 96 94 71 95 95 86 92 80 81 85 88 73 63 67 88 92 92 95 97
7 14 24 28 33 40 46 45 60 78 78 82 85 89 92 96 97 98 100 100 93 88 99 100 89 97 100 82 90 85 77 84 94 96 96 96 96 96
14 23 28 30 38 44 46 70 82 82 86 89 88 86 85 85 82 94 98 98 100 99 97 100 97 99 96 95 91 98 98 100 95 97 97 98 97 96
25 29 32 37 43 48 76 85 88 90 91 88 86 87 89 86 80 82 93 97 98 97 98 97 97 97 98 97 96 95 92 97 96 95 96 97 96 96
28 31 37 44 54 82 86 92 92 94 92 91 90 90 92 85 88 90 87 91 90 96 99 96 97 97 97 97 96 96 97 93 91 96 96 97 98 96
30 34 41 51 80 83 89 94 95 92 91 93 92 91 91 91 92 94 94 95 97 92 95 99 96 96 96 96 97 99 94 96 98 97 96 96 100 100
33 40 50 81 82 84 86 89 94 93 96 94 97 97 91 91 89 91 98 96 94 95 93 97 97 97 97 97 95 94 98 99 96 96 96 99 97 94
41 49 79 84 83 87 93 93 93 98 99 99 100 97 94 97 95 94 94 91 97 96 97 99 97 95 93 97 96 96 96 97 97 95 95 96 100 84
45 70 86 85 87 95 96 96 97 98 100 100 100 100 98 95 93 94 94 91 93 97 98 100 98 86 81 95 95 94 96 96 97 97 96 93 97 99
59 91 89 89 94 96 98 100 100 98 99 100 100 100 100 97 95 96 94 97 95 98 97 99 96 86 96 99 98 96 96 96 96 96 97 98 94 94
87 91 92 97 97 99 98 99 99 98 100 100 100 100 100 100 97 95 94 90 94 95 96 97 98 95 93 90 90 97 96 96 96 96 94 96 97 83
91 92 96 96 97 97 96 99 99 98 99 100 100 100 100 100 100 100 94 95 95 95 96 97 97 97 97 93 92 99 99 95 96 94 96 96 95 97

GFSNE_700_rhum_018.txt.gz
RH
19 18 18 19 18 16 14 14 13 8 8 9 10 11 13 12 9 6 5 6 7 8 9 8 10 12 15 15 19 17 14 13 12 11 10 11 13 37
19 20 20 18 16 16 16 18 18 18 12 11 11 12 11 6 5 5 6 7 9 14 18 22 30 46 68 42 39 42 48 28 18 30 46 71 87 90
22 21 19 17 16 18 19 20 20 20 18 9 12 9 5 5 6 10 16 29 41 39 39 45 81 95 98 57 45 57 94 100 100 100 98 100 97 95
21 19 17 17 18 20 21 21 21 18 11 8 6 5 8 12 16 21 31 39 46 48 51 50 46 48 70 50 99 100 100 96 94 44 75 98 95 77
20 17 17 18 20 21 21 20 15 9 7 13 13 17 19 24 26 33 42 38 38 40 46 52 61 73 70 63 57 47 38 33 34 38 56 95 98 98
18 19 21 22 22 20 18 13 8 11 18 24 27 37 40 41 48 42 33 39 55 73 77 76 86 86 85 84 78 71 68 66 63 56 41 28 25 26
20 21 22 21 20 18 10 8 13 22 25 43 51 50 46 44 41 42 63 68 58 76 85 73 84 76 73 74 74 72 70 68 68 68 66 63 49 32
20 21 22 21 18 10 8 17 26 32 42 51 45 42 43 54 71 72 74 74 59 73 89 70 86 70 76 86 88 87 84 78 76 73 69 65 63 59
23 23 23 17 9 8 16 18 25 37 52 48 44 57 73 75 81 81 77 77 75 81 95 72 81 69 82 81 90 100 98 94 86 76 69 65 59 55
26 24 18 9 8 17 19 23 31 37 37 49 76 79 81 86 93 94 89 85 77 83 98 78 81 77 80 80 98 100 96 91 80 71 62 54 50 51
25 18 9 8 20 23 27 28 31 35 59 74 80 84 86 92 100 95 92 88 78 76 97 83 79 82 81 97 100 97 82 75 70 62 56 50 51 55
18 9 9 20 24 26 32 34 37 63 64 67 76 83 91 95 100 100 93 86 90 76 96 87 83 96 75 97 100 96 87 87 80 73 73 88 96 95
10 7 15 23 26 30 38 48 69 69 72 78 78 85 86 85 86 84 89 100 94 88 98 98 88 92 99 85 98 100 100 99 95 96 96 96 95 95
7 12 22 24 29 38 56 73 74 75 79 83 85 84 79 84 86 88 94 97 100 100 96 96 93 96 95 91 94 89 93 96 96 96 96 96 97 97
11 22 26 28 38 59 77 80 82 85 86 84 83 84 87 90 92 88 92 94 97 98 96 92 95 98 99 97 94 96 88 87 96 93 95 96 95 96
18 25 28 36 64 81 83 90 93 92 92 90 86 87 89 89 94 94 88 89 81 92 99 96 96 100 93 99 97 95 96 95 89 96 100 98 96 96
24 27 33 55 80 83 87 95 95 95 94 94 91 89 88 89 93 97 97 94 94 86 87 98 98 99 100 96 93 93 95 96 99 98 100 98 96 96
26 31 44 79 83 82 88 90 96 94 94 96 94 94 88 88 87 94 98 97 94 93 88 89 89 91 90 84 81 83 94 95 96 97 97 98 98 73
31 38 74 84 84 92 93 94 92 96 96 95 97 95 91 90 92 91 92 91 92 96 90 91 93 91 80 76 85 99 92 91 96 95 94 98 97 80
38 66 84 87 94 94 94 95 97 96 95 97 98 100 100 94 92 92 95 92 89 90 96 97 97 95 86 90 92 94 97 94 94 96 98 99 100 87
50 88 89 95 95 96 98 99 99 96 97 98 100 100 100 97 96 97 96 98 96 96 95 95 93 93 100 99 91 91 97 97 95 95 97 93 98 100
80 90 95 96 96 97 99 98 98 100 100 100 100 100 100 100 98 96 95 92 94 96 97 95 96 96 96 93 92 96 96 97 95 95 96 97 83 94
88 93 96 96 94 96 96 98 99 100 100 98 100 100 100 98 98 97 95 96 96 98 95 96 97 95 95 94 92 96 97 96 96 97 92 93 97 97

GFSNE_700_rhum_021.txt.gz
RH
22 22 20 18 18 15 12 10 10 10 12 11 10 9 9 9 8 6 5 6 9 12 12 11 12 12 12 12 13 16 78 98 98 98 99 98 79 91
23 20 19 18 16 14 12 13 13 13 10 10 8 9 9 6 5 10 14 18 20 20 21 22 23 24 24 31 28 32 54 59 86 95 91 70 85 96
21 20 20 17 14 14 14 16 17 16 12 6 8 7 5 8 13 23 29 29 24 23 24 26 29 36 38 35 30 30 36 86 97 96 97 98 99 99
21 19 17 15 14 15 17 18 17 17 14 9 5 5 8 17 22 21 23 26 30 42 58 62 62 60 64 67 69 68 68 64 100 90 99 94 98 99
20 17 15 13 14 17 19 18 17 13 8 6 8 11 18 19 20 24 31 46 62 66 68 69 72 76 72 72 71 71 70 70 69 68 53 46 76 94
18 15 14 15 18 20 20 17 12 7 11 17 19 22 22 27 33 49 53 59 65 68 66 69 76 76 76 76 73 72 70 67 66 67 67 66 59 40
16 15 16 19 22 21 17 11 7 12 18 23 29 28 30 48 59 60 63 62 58 72 68 63 72 66 67 70 76 79 86 90 88 76 66 63 63 63
15 17 21 23 21 17 10 8 17 21 26 32 29 35 64 67 69 67 68 67 50 63 73 62 78 67 80 82 84 88 86 83 80 81 81 76 70 64
19 22 22 20 16 10 6 12 17 25 38 38 46 70 70 75 75 70 64 65 51 54 82 61 73 72 84 96 99 92 81 75 71 71 73 71 70 70
22 22 19 15 8 6 11 17 20 32 38 60 72 76 80 81 86 83 78 71 53 58 96 65 76 77 84 99 98 93 92 91 88 80 73 68 64 57
20 18 12 6 6 14 20 20 27 41 62 71 80 83 84 86 92 86 86 77 61 62 90 71 74 73 78 98 97 96 96 96 94 92 89 83 74 63
13 7 6 7 14 22 23 30 41 64 64 65 70 78 84 90 97 100 100 91 87 65 91 75 74 86 57 85 95 97 96 99 99 100 99 94 94 93
5 6 7 14 21 24 33 51 69 68 69 72 73 80 85 86 91 97 100 100 94 92 99 88 78 92 93 74 70 87 94 92 90 95 97 97 97 97
6 7 14 20 24 32 57 74 74 75 75 78 83 85 81 82 91 94 98 100 100 99 94 92 85 96 94 82 76 78 84 95 95 94 95 96 98 97
6 14 22 23 31 56 78 79 80 83 85 84 82 84 85 88 89 89 92 95 98 99 99 96 93 92 97 87 83 84 92 84 96 96 96 96 95 95
9 20 24 30 52 82 84 88 93 92 89 85 85 86 87 87 89 88 84 83 82 83 99 96 95 99 88 92 90 88 94 95 93 97 96 98 98 92
17 22 26 41 78 82 89 98 97 93 90 90 88 86 88 87 91 91 88 85 87 83 76 92 97 97 97 95 86 81 89 92 97 95 92 96 98 97
22 23 31 74 82 86 90 87 92 92 93 92 94 96 93 91 90 92 96 94 89 90 88 86 77 72 79 80 89 76 84 94 97 96 96 87 88 83
23 29 62 82 86 91 88 90 91 94 94 96 98 98 96 94 96 95 95 93 89 94 94 92 88 87 82 73 74 100 90 90 95 97 97 98 92 97
28 48 82 87 92 88 91 93 94 97 99 99 97 98 98 97 95 97 98 95 91 90 94 97 92 92 90 83 84 96 97 92 95 98 96 99 99 99
35 81 87 93 91 90 93 97 97 97 97 97 99 99 99 98 98 100 97 98 100 96 91 87 90 94 91 93 92 94 96 95 97 96 99 98 76 83
67 87 93 93 90 91 93 95 97 98 97 100 100 100 100 100 99 98 97 94 96 91 92 93 94 93 91 88 90 92 94 93 95 97 96 99 91 94
82 91 91 91 90 92 91 94 97 98 100 98 100 99 98 98 100 100 99 99 93 92 90 94 98 95 91 89 90 92 96 90 89 95 96 99 98 99

GFSNE_700_rhum_024.txt.gz
RH
38 24 24 24 20 18 15 12 11 12 13 12 11 10 9 7 6 5 4 4 7 10 12 11 13 15 15 15 14 13 16 21 46 91 84 98 97 87
29 23 24 20 18 15 12 11 10 10 12 11 10 9 8 7 5 6 8 12 12 13 14 20 27 30 31 32 31 28 24 22 23 39 77 94 58 46
24 24 20 18 14 13 12 10 11 11 9 7 8 8 6 5 7 14 20 16 14 25 40 48 51 49 49 51 48 49 50 49 48 50 53 93 100 97
24 20 18 15 13 12 11 12 12 12 11 6 7 5 5 8 15 21 18 25 44 44 51 57 53 52 58 56 59 61 55 56 56 56 56 56 82 100
21 18 15 13 12 12 14 13 13 12 10 6 3 4 7 14 19 19 38 51 53 54 58 65 58 64 63 65 68 65 61 61 57 59 58 57 58 61
18 16 14 12 14 14 13 13 13 9 6 4 8 10 12 21 28 49 50 56 55 60 54 51 52 58 62 69 69 68 71 72 73 74 71 69 66 62
17 14 13 15 14 14 14 11 7 5 6 15 17 19 23 32 55 58 57 56 48 61 58 39 49 58 66 68 72 77 73 74 77 78 79 76 73 69
13 14 14 12 12 10 6 5 5 8 15 20 22 29 42 60 65 63 63 56 45 55 71 38 65 59 72 73 81 73 74 80 85 87 84 79 74 71
15 14 13 12 6 4 4 5 7 16 23 27 31 55 67 74 78 70 63 66 60 63 80 44 65 60 72 84 86 80 89 90 89 91 94 89 77 71
14 14 8 4 4 4 4 6 15 21 30 42 65 70 80 83 86 84 76 70 58 69 94 64 64 64 65 94 96 97 100 98 98 98 97 97 98 94
12 5 4 4 5 5 9 16 18 27 51 69 73 82 85 89 93 90 84 81 75 68 87 79 62 65 63 80 95 88 85 94 96 97 98 100 100 98
5 4 5 5 6 14 20 21 26 55 66 68 72 80 86 85 90 97 100 92 87 70 88 74 64 78 52 62 70 83 79 81 82 91 98 100 100 98
4 5 6 6 13 20 23 34 63 68 68 72 75 80 82 86 90 98 100 100 94 82 92 88 70 76 84 68 60 71 73 65 75 89 99 97 97 99
5 5 6 11 19 22 36 70 73 72 74 76 77 82 83 84 87 95 100 98 97 94 86 96 82 87 84 74 68 67 66 73 89 94 94 95 97 99
4 5 9 18 22 35 73 75 77 82 80 80 82 84 83 84 88 90 89 92 87 97 97 97 92 93 94 90 91 72 71 73 96 96 95 96 97 97
5 6 16 21 31 74 78 84 88 87 86 86 85 84 85 86 90 97 88 88 84 84 98 98 90 94 95 95 93 85 80 89 93 97 93 98 100 99
6 12 20 25 67 76 82 88 88 89 89 92 91 88 92 93 95 99 96 88 88 86 80 85 90 96 99 99 92 85 78 89 96 97 95 92 98 98
9 19 23 48 77 81 84 85 91 90 92 93 96 98 96 96 95 94 97 95 89 87 87 85 79 78 80 80 94 85 87 94 96 98 99 96 97 99
17 22 31 76 82 86 85 87 89 93 92 95 97 99 96 95 99 96 95 93 90 91 92 88 92 91 78 70 76 97 86 91 90 98 97 97 98 96
22 26 68 83 87 87 88 90 92 93 96 98 98 97 98 99 99 98 98 96 93 89 89 95 96 92 94 91 73 86 96 91 95 96 95 98 98 93
23 58 84 88 88 88 90 92 97 98 98 97 98 97 98 100 99 100 97 99 99 96 91 95 92 97 99 94 86 90 96 100 100 96 95 95 99 83
40 82 89 89 90 90 90 91 96 98 97 97 98 98 98 99 98 96 97 98 95 94 90 93 92 95 97 91 88 91 91 92 100 95 97 95 97 95
74 89 89 91 92 91 91 94 96 98 98 98 98 99 99 98 98 98 98 98 94 94 93 89 98 100 100 96 92 90 91 91 88 93 96 99 100 97

GFSNE_700_rhum_027.txt.gz
RH
70 72 70 41 25 25 20 17 14 13 15 14 14 10 7 6 5 4 3 2 3 4 6 7 7 9 12 18 25 29 32 31 29 24 18 25 21 63
74 78 51 26 24 21 17 14 13 13 14 13 9 7 6 5 4 3 3 5 7 10 11 14 29 35 37 38 40 39 37 37 38 39 39 48 93 94
81 62 27 24 21 17 14 13 12 12 10 7 6 6 5 4 3 4 8 12 12 16 36 44 46 50 48 50 47 45 46 45 45 47 45 46 55 98
70 27 24 21 16 14 13 12 12 9 7 5 4 3 3 4 5 10 15 14 22 43 44 52 52 52 52 51 49 51 52 53 53 51 48 47 47 47
28 24 21 16 14 13 12 11 8 7 5 3 3 3 4 9 11 17 21 32 46 51 52 53 47 49 48 40 43 53 58 56 56 57 62 66 65 61
24 20 16 14 13 12 10 8 6 4 3 3 3 4 9 12 21 30 41 53 52 54 55 54 49 54 45 47 60 60 58 56 65 69 71 70 68 70
19 16 14 13 12 9 7 4 4 4 4 4 7 11 12 18 38 56 57 58 54 58 56 52 52 52 49 60 66 64 63 65 67 73 78 83 85 75
16 14 13 11 8 6 4 4 4 5 6 12 14 15 23 47 62 64 64 64 56 56 60 53 64 55 52 61 66 72 67 73 74 79 82 83 84 91
14 13 10 8 6 4 4 5 5 7 15 18 19 37 60 68 72 73 69 68 59 60 70 70 67 51 54 61 74 81 84 78 80 91 95 95 95 92
13 10 8 5 4 4 5 5 6 13 19 26 54 65 72 76 82 87 78 73 58 60 76 83 68 56 56 58 75 90 85 87 91 84 79 81 88 98
9 8 6 5 5 4 5 6 12 17 33 65 69 73 81 84 88 88 83 80 66 50 71 88 65 56 48 50 70 84 88 87 82 79 75 79 88 97
9 6 5 5 4 5 8 14 16 34 63 64 70 77 79 79 84 87 86 85 86 59 78 78 63 74 44 41 54 66 74 76 75 68 70 83 97 95
6 5 5 5 4 7 15 20 40 65 66 71 73 75 81 85 84 87 96 100 99 80 94 94 71 74 83 55 48 66 68 65 62 62 74 99 97 97
5 6 6 5 6 14 20 44 71 72 75 74 76 80 82 84 86 92 96 100 100 99 92 100 88 87 81 71 60 61 67 67 66 66 92 98 93 96
6 8 6 6 12 19 39 73 76 79 77 81 84 84 86 87 89 93 91 94 92 98 100 100 96 92 96 88 75 69 74 63 70 81 95 89 94 93
9 8 6 9 18 28 72 79 82 83 87 88 88 89 89 90 92 93 88 91 87 86 97 100 100 100 92 94 94 84 82 77 75 94 94 87 94 96
10 7 8 15 21 67 75 83 88 90 91 94 92 92 91 89 88 94 95 89 90 89 83 92 96 96 94 96 92 84 81 74 86 93 96 89 85 92
9 8 13 19 59 75 80 84 92 94 96 96 96 95 89 89 86 87 93 94 91 91 90 94 86 76 79 79 98 88 76 78 85 94 97 90 80 91
12 14 21 47 77 82 86 88 90 95 98 100 97 96 95 89 92 90 93 94 89 91 91 96 90 93 84 69 78 99 86 89 82 86 96 96 88 87
17 21 36 79 84 87 91 92 94 97 98 96 95 96 98 93 90 92 97 97 92 87 85 94 95 97 96 90 76 91 98 89 86 83 82 89 97 95
22 30 77 87 89 94 96 97 100 100 98 97 98 97 95 95 92 97 99 99 99 96 88 87 94 97 99 91 86 88 96 97 98 90 80 81 86 91
23 71 90 91 94 96 96 97 97 100 98 98 98 98 98 98 97 98 100 99 95 94 91 97 98 94 92 98 95 93 92 95 97 97 100 97 92 77
59 89 93 95 96 95 91 95 100 100 100 99 98 98 98 97 99 99 99 98 95 97 100 93 96 98 99 98 99 95 95 96 94 93 96 95 98 97

GFSNE_700_rhum_033.txt.gz
RH
67 68 69 71 73 75 75 73 66 34 25 20 17 19 19 15 11 9 8 6 5 4 3 2 2 3 4 5 6 8 12 26 33 36 35 36 37 39
71 70 71 74 76 78 78 70 31 25 19 17 20 17 13 10 8 6 5 3 2 2 3 3 5 6 8 11 17 31 39 43 43 41 42 44 44 46
74 74 79 78 82 82 75 30 24 17 19 20 15 11 9 6 5 4 2 2 2 3 4 7 9 17 31 37 42 45 46 42 40 37 36 35 36 37
77 90 93 85 88 80 29 23 17 19 17 14 10 8 6 4 3 2 2 3 4 8 13 30 37 43 44 47 47 46 43 41 40 37 35 34 33 35
90 98 94 94 83 27 21 18 19 15 11 8 7 5 4 3 3 3 4 6 11 33 42 43 45 48 51 51 50 47 46 45 42 41 38 36 39 50
98 96 98 76 25 19 18 18 14 10 8 6 5 4 3 3 4 5 6 24 39 45 48 48 50 49 52 56 53 51 53 55 54 48 46 43 48 51
98 97 55 24 18 18 16 13 9 7 6 4 4 3 3 4 7 15 37 42 42 47 45 41 46 48 52 53 52 53 61 71 65 54 52 49 51 56
92 28 20 18 17 15 11 8 7 6 4 4 4 4 5 9 31 49 50 44 30 47 47 42 48 43 46 48 48 58 65 70 69 61 56 53 58 67
24 19 18 16 14 10 8 7 5 4 5 5 5 6 13 47 57 53 52 50 48 53 53 44 57 48 54 51 55 63 67 68 67 58 58 58 61 70
19 18 16 12 9 8 6 4 4 5 6 6 7 16 46 62 64 63 59 60 54 59 69 61 61 54 57 56 62 65 72 79 78 68 61 56 63 68
17 14 10 8 7 5 4 4 5 7 6 8 19 58 69 75 75 70 72 66 55 60 76 79 64 57 55 52 60 65 75 75 76 77 68 66 68 71
12 9 8 6 4 4 5 7 8 7 7 15 60 71 75 75 83 87 87 81 78 67 84 79 70 75 49 49 51 62 68 77 81 80 69 69 73 74
8 6 4 4 5 7 9 9 8 7 14 57 66 70 76 81 85 90 93 91 83 73 91 92 79 83 82 61 54 62 65 72 75 71 81 80 78 80
4 4 5 7 8 9 10 8 10 19 61 66 68 77 80 83 84 88 88 92 91 85 89 100 94 95 90 74 65 63 70 76 75 74 76 74 77 78
5 6 8 9 10 11 11 13 25 68 70 72 76 80 82 83 84 86 87 90 85 92 97 100 100 96 91 85 81 68 73 74 82 73 69 66 64 70
8 8 9 11 13 13 14 35 76 78 78 76 79 83 86 87 87 91 87 88 81 82 90 97 97 96 90 86 87 78 90 88 82 80 72 66 69 77
9 11 12 14 16 16 43 80 85 86 86 87 85 86 87 88 89 93 94 88 84 81 77 88 94 94 93 96 90 92 94 85 78 71 69 66 71 77
13 14 14 17 16 47 77 82 90 90 87 84 90 93 91 90 88 92 93 93 90 87 83 91 89 83 80 82 97 90 79 73 72 74 80 75 62 79
15 17 18 18 49 82 83 85 85 85 86 92 92 94 93 90 93 96 95 94 89 90 89 94 91 95 85 70 77 99 92 83 87 83 86 84 77 77
17 20 20 50 82 86 86 83 86 87 88 90 93 96 99 97 95 96 96 95 93 89 88 100 98 95 96 93 73 76 98 95 91 84 84 86 85 83
22 22 54 83 88 85 82 87 85 84 86 90 97 95 94 96 97 98 97 99 99 99 93 92 97 99 100 94 85 83 86 98 98 97 96 93 88 84
22 64 85 88 82 80 85 82 82 84 84 87 86 86 91 97 98 96 97 96 98 96 91 90 95 96 96 93 90 88 86 90 97 98 97 97 96 91
72 86 88 82 80 82 81 76 76 81 79 83 85 89 90 92 97 98 97 97 94 89 91 89 89 94 98 97 99 97 93 92 93 92 96 97 96 97

GFSNE_700_rhum_036.txt.gz
RH
100 97 71 71 73 70 69 72 76 69 65 64 44 23 18 20 21 18 15 11 8 6 4 3 2 2 2 2 2 2 3 4 4 5 8 13 23 29
99 91 74 77 78 76 78 85 81 75 70 56 25 19 20 20 16 13 10 7 5 3 2 2 2 2 2 3 4 6 8 13 21 27 32 34 34 37
100 89 76 80 79 77 92 91 85 82 62 26 19 21 19 14 10 7 5 4 2 2 2 2 3 4 6 12 20 28 32 36 39 40 39 37 36 36
97 79 78 80 79 87 96 94 88 46 24 19 22 18 14 9 6 5 3 2 2 2 3 4 11 26 36 37 37 38 40 40 42 40 38 35 34 35
96 87 88 86 97 98 95 88 33 20 20 20 16 12 8 6 4 3 2 3 3 4 11 34 40 40 41 42 41 41 42 40 37 38 38 35 36 32
99 98 97 98 97 96 69 23 19 20 18 14 10 7 5 3 3 3 3 3 4 23 43 45 41 42 44 43 40 40 40 41 43 45 45 40 36 42
98 97 97 97 85 28 20 20 19 16 12 8 6 4 3 3 4 4 4 5 21 45 46 39 42 44 51 51 48 42 42 46 46 42 45 46 43 47
96 94 79 26 21 20 19 16 14 9 7 5 3 3 4 5 5 5 8 31 38 45 46 39 49 43 46 49 53 54 57 58 48 48 57 56 48 53
78 29 22 20 20 18 15 10 8 6 4 4 4 6 6 6 8 16 44 50 43 47 54 34 50 45 54 54 58 62 68 64 62 61 59 55 48 46
22 21 20 18 15 11 8 6 4 4 4 6 7 7 7 9 28 53 52 50 54 62 68 46 67 57 57 55 61 68 68 71 70 72 68 60 53 49
21 18 16 11 8 6 4 4 4 6 8 8 8 9 18 56 72 66 68 69 62 65 72 69 65 58 58 55 60 67 72 72 77 78 78 70 64 59
16 12 9 6 4 4 4 6 7 8 8 8 10 34 73 76 78 81 82 81 82 69 76 75 68 75 52 45 50 58 65 73 78 81 75 72 70 64
8 6 4 4 5 6 8 8 9 9 9 10 40 68 74 77 80 87 93 93 87 80 88 93 72 80 82 58 54 61 63 67 74 76 82 82 77 73
4 4 5 6 8 9 9 10 11 11 15 54 66 73 75 79 84 91 91 91 91 88 90 100 86 91 85 72 64 63 66 74 77 73 75 76 81 83
5 6 8 9 11 12 12 14 13 25 65 68 71 75 77 81 85 87 89 94 88 96 99 100 98 95 90 81 78 68 75 73 82 79 79 73 70 74
8 10 11 12 13 13 14 16 42 72 73 72 72 76 82 87 89 92 86 88 80 79 94 98 96 96 88 90 93 78 87 84 85 91 81 70 71 71
9 11 12 14 17 19 20 62 77 79 78 78 82 84 86 86 87 93 93 89 84 78 73 89 98 99 95 97 94 93 96 93 88 82 79 71 75 81
13 14 13 17 19 28 75 82 81 76 82 83 86 87 87 88 85 85 88 89 85 83 82 89 89 88 85 82 98 89 81 78 77 76 81 78 70 81
17 14 16 19 48 79 80 73 75 81 76 82 84 86 82 81 86 88 87 86 82 85 88 96 93 94 90 74 86 99 97 96 97 93 89 84 80 81
14 16 22 68 80 79 73 78 76 74 79 82 80 81 86 87 92 92 91 89 87 86 86 98 99 99 97 91 75 79 98 93 89 85 81 80 79 80
17 30 72 77 75 76 79 75 70 74 76 78 85 88 93 92 91 95 93 96 98 98 91 93 99 99 99 96 83 81 85 97 97 96 95 92 85 80
45 69 72 72 75 76 72 69 73 75 82 85 88 94 95 93 90 91 93 91 88 92 94 92 94 94 97 96 92 90 89 94 98 97 97 98 98 95
66 69 72 72 73 71 67 66 70 76 80 82 86 91 94 92 95 93 86 86 86 86 96 92 89 93 96 97 97 96 94 95 93 87 96 98 98 98

GFSNE_700_rhum_039.txt.gz
RH
97 100 100 98 98 98 98 84 78 73 69 70 74 74 71 66 40 22 20 22 21 17 12 9 6 4 3 2 2 2 2 2 2 2 2 3 4 5
99 100 100 95 97 99 97 84 82 80 77 79 80 78 71 44 20 21 22 20 15 11 7 5 4 2 2 2 2 2 2 2 4 8 13 17 22 27
98 100 99 97 98 97 97 86 82 81 81 82 85 77 38 20 22 20 15 11 8 6 4 3 2 2 2 2 2 4 8 18 25 27 29 31 31 34
100 99 99 99 99 98 98 89 95 97 96 88 74 25 20 22 17 13 9 6 4 3 3 3 3 3 3 6 16 27 32 32 31 29 27 29 32 35
100 100 100 99 99 98 97 98 99 98 93 48 21 22 19 15 10 7 5 3 3 3 4 4 4 9 25 36 39 38 33 29 26 27 28 30 32 32
100 99 99 98 98 97 98 98 90 35 21 21 20 16 11 8 5 3 3 3 4 4 5 7 22 45 47 43 42 38 34 32 32 32 32 32 30 28
99 97 96 98 98 97 83 26 21 21 20 16 12 8 5 3 3 3 4 5 5 5 13 34 47 44 47 54 51 47 44 44 46 48 49 46 42 39
97 98 98 98 84 25 21 21 20 17 12 8 5 4 4 4 6 6 6 6 5 22 48 42 42 44 51 47 48 50 51 55 59 58 54 53 52 48
98 98 72 25 21 21 20 16 12 8 6 4 4 5 6 8 7 7 6 10 35 50 54 35 51 51 59 56 60 57 59 63 62 57 55 54 54 52
54 24 22 21 19 16 11 8 6 4 4 6 7 8 8 8 8 8 24 47 42 54 74 46 64 60 58 58 62 66 69 68 64 64 64 64 62 61
24 22 18 15 10 8 5 4 4 6 7 8 8 9 9 10 34 56 60 57 55 58 73 73 69 62 59 54 60 68 68 69 74 74 75 75 73 71
16 12 9 6 5 5 5 6 6 7 8 9 10 11 29 64 71 73 75 72 74 65 76 82 73 74 55 49 50 58 62 73 76 76 76 76 77 74
7 6 5 5 5 6 7 8 8 9 10 10 13 50 63 69 76 83 86 84 85 81 91 94 79 78 79 58 49 59 67 70 77 75 79 78 75 73
6 5 5 6 7 7 8 9 10 11 12 24 56 64 68 75 80 87 90 92 89 86 92 99 86 86 81 68 62 63 69 78 83 77 76 78 82 83
6 6 7 7 9 10 11 12 13 14 48 59 63 68 74 77 82 84 86 88 83 93 100 97 95 96 92 85 80 70 78 74 80 84 84 80 80 85
7 8 9 11 11 10 12 13 31 58 61 62 66 72 74 77 81 82 80 82 76 80 97 100 97 95 88 89 90 81 84 83 83 88 83 76 77 77
9 11 13 11 10 13 21 57 65 66 68 75 72 71 72 71 79 86 87 84 81 78 77 91 98 97 95 98 95 93 97 93 89 84 82 77 81 93
13 14 11 12 17 49 68 70 66 70 71 69 70 70 72 75 76 80 84 90 88 89 90 94 90 89 88 91 97 88 80 77 77 78 82 76 68 78
12 11 14 38 65 65 64 66 69 65 64 66 68 73 76 78 82 87 90 92 87 85 91 97 90 92 88 80 86 98 95 94 94 90 93 95 86 81
10 21 55 63 64 63 66 64 62 61 64 69 73 75 77 84 90 94 96 94 89 84 82 97 99 96 95 91 82 86 98 93 97 94 91 87 84 80
27 56 63 64 63 65 63 60 56 60 66 70 72 79 86 88 93 97 94 98 93 85 79 84 96 99 100 98 86 82 91 98 97 96 93 93 87 81
54 60 63 61 62 63 60 58 60 64 70 74 78 80 85 92 92 77 78 82 86 81 75 80 93 96 98 95 92 94 91 88 97 97 98 98 100 99
55 62 65 59 60 60 59 62 64 68 69 73 77 80 83 77 65 66 76 79 75 69 82 78 85 95 97 96 96 94 91 86 85 80 95 98 99 100

GFSNE_700_rhum_042.txt.gz
RH
99 100 90 100 100 99 100 100 99 99 96 96 96 88 82 82 86 84 81 74 43 21 22 23 19 15 11 8 6 4 3 3 3 3 2 2 2 2
100 91 100 94 91 98 99 100 99 100 99 100 96 95 89 90 92 88 71 33 22 23 20 15 11 8 6 4 3 3 3 3 3 2 2 2 3 5
100 86 99 87 98 99 99 99 98 98 99 100 95 91 96 97 90 48 21 22 19 14 10 7 4 3 3 3 3 3 3 3 3 5 9 15 21 27
99 99 87 95 100 99 100 100 99 97 97 97 94 95 90 49 21 22 19 15 10 7 4 3 3 4 4 4 4 4 4 6 13 22 28 32 31 28
100 90 83 100 100 100 98 97 97 97 96 94 90 51 22 21 18 14 10 6 4 4 4 4 4 4 4 4 5 10 21 30 34 33 31 30 30 32
99 100 100 100 98 99 98 97 97 98 95 47 22 22 18 13 9 6 4 4 4 4 5 5 5 6 14 26 37 43 41 37 36 37 37 38 36 34
100 100 100 98 98 98 97 97 94 43 22 22 18 14 8 5 4 4 4 4 5 5 6 7 19 36 50 54 52 54 54 52 49 48 46 43 41 41
100 98 97 98 98 97 93 29 23 21 16 12 7 6 4 5 5 5 6 6 5 7 14 30 45 41 57 55 60 62 62 62 61 59 57 55 52 50
97 98 97 98 77 24 22 19 15 11 7 5 5 5 6 7 6 7 8 7 11 32 52 31 49 48 56 57 64 63 64 65 63 60 58 55 54 53
97 76 32 24 23 17 13 8 6 5 5 6 6 7 8 8 9 8 11 26 36 51 69 41 58 53 54 59 65 70 73 71 70 68 64 59 56 54
24 23 18 13 9 7 6 5 5 6 6 7 8 9 10 10 15 32 50 46 47 55 68 72 64 56 53 52 61 66 70 69 69 69 68 66 65 62
14 10 8 7 6 6 6 6 6 7 8 9 10 11 14 41 57 59 61 61 66 55 73 73 68 72 51 49 50 57 63 71 71 71 72 70 68 64
8 8 7 6 6 6 6 7 7 8 9 9 13 41 56 59 65 71 73 72 71 70 88 88 75 80 77 57 48 59 64 66 72 73 78 79 77 72
8 7 6 6 6 7 7 8 9 8 10 29 49 55 58 63 68 66 68 70 77 88 90 94 82 84 77 68 63 65 77 78 75 70 72 74 79 82
6 6 7 7 8 9 8 8 9 20 44 48 52 56 57 56 58 59 70 76 81 94 100 98 90 86 85 79 76 73 78 72 83 82 79 74 76 81
8 8 8 8 8 7 8 18 42 47 48 49 50 53 55 60 68 71 72 74 73 78 91 98 98 96 91 92 87 85 94 90 90 87 82 76 76 78
8 9 7 7 7 17 39 45 46 47 48 49 53 55 57 58 71 74 76 75 74 71 75 88 93 95 98 97 92 96 95 87 86 82 85 86 87 91
8 7 7 13 36 47 46 46 45 46 47 53 58 54 56 66 73 79 81 84 82 83 84 92 90 86 86 88 95 86 79 79 80 80 87 82 72 79
7 8 25 45 45 44 46 49 51 49 52 57 61 60 59 69 74 80 85 72 70 74 74 80 81 85 84 74 77 98 89 94 94 88 98 94 76 72
14 35 43 45 43 45 47 48 50 52 54 61 65 68 68 67 75 82 70 64 70 61 58 74 86 86 92 91 81 82 98 93 93 86 88 78 77 75
38 46 48 44 45 49 50 50 53 55 57 62 67 71 76 79 80 69 56 74 70 55 61 62 78 88 97 97 83 79 88 98 97 96 94 92 92 84
47 51 52 46 48 50 52 53 57 59 62 65 68 74 80 77 60 53 68 84 58 46 57 62 64 78 96 96 87 89 82 78 97 97 98 94 98 93
48 55 57 49 47 49 52 55 60 63 65 66 70 74 62 52 49 60 86 82 72 40 36 59 65 77 95 97 96 93 87 84 82 79 88 98 96 90

GFSNE_700_rhum_045.txt.gz
RH
93 96 94 96 97 94 99 97 100 96 98 100 100 100 99 97 92 93 88 91 88 86 88 81 44 23 23 22 17 12 9 7 6 5 4 4 4 4
98 96 98 96 91 95 99 99 99 99 100 100 100 99 99 100 99 96 92 88 91 88 61 27 23 24 18 13 9 6 5 4 4 4 4 3 3 3
98 100 100 97 87 99 99 100 99 99 100 100 100 99 98 97 98 96 94 88 57 24 23 22 16 11 7 5 5 5 4 4 4 3 3 3 4 4
99 100 98 95 99 100 99 100 99 99 99 99 99 98 97 97 97 94 70 26 22 19 13 7 5 5 5 4 4 4 4 3 3 4 4 6 11 18
81 92 100 100 96 99 100 99 98 98 98 98 97 98 97 97 79 25 22 17 11 6 5 5 5 4 4 4 4 4 5 5 7 12 19 29 35 35
99 99 99 99 99 100 98 98 100 99 97 97 97 94 48 22 19 13 8 5 5 5 5 5 4 4 6 9 13 19 24 29 33 35 35 37 39 39
100 100 100 100 98 98 97 94 97 97 97 90 30 21 16 10 6 5 5 5 5 5 5 6 9 21 38 43 43 47 49 49 49 49 47 47 46 44
100 99 99 99 98 98 97 96 97 61 23 19 12 7 6 6 5 5 5 5 5 6 10 20 35 39 45 48 53 54 54 56 57 56 57 56 56 54
98 98 96 96 97 91 65 25 21 14 9 7 6 6 6 6 5 6 6 6 10 34 36 27 49 41 48 54 60 63 65 66 64 63 61 58 57 57
97 97 90 47 24 22 16 11 8 6 6 6 6 6 6 6 6 6 12 25 35 45 47 32 45 40 46 48 58 65 68 70 69 64 60 58 58 58
35 26 21 15 10 9 9 7 6 6 6 6 6 7 7 7 11 28 41 42 40 47 57 50 47 44 42 43 51 58 67 69 69 66 64 61 58 58
13 11 11 10 8 7 7 7 7 6 6 7 7 7 9 29 42 45 46 45 48 50 64 54 52 56 42 47 54 62 60 66 70 70 68 67 66 63
12 10 9 8 7 7 6 6 6 6 7 7 11 30 42 48 52 52 52 52 57 63 71 66 56 60 62 55 54 65 71 74 73 74 79 80 77 74
7 6 6 6 6 6 6 6 6 6 12 32 40 44 49 53 54 56 59 58 64 73 76 82 74 74 65 62 60 63 74 72 72 74 72 74 76 79
4 5 6 6 7 6 6 6 11 29 39 44 45 47 49 48 48 53 65 71 77 89 94 93 85 78 76 70 68 70 74 70 79 79 75 71 72 76
5 6 6 6 5 6 9 25 36 37 38 40 44 48 45 48 58 64 66 70 69 70 76 79 79 72 64 70 72 78 89 84 86 80 74 73 76 80
5 5 4 5 9 22 30 33 34 36 37 39 43 49 48 49 59 64 68 72 63 56 61 72 75 72 72 75 75 91 92 86 82 76 77 75 80 90
4 4 6 18 33 35 36 37 38 39 40 42 46 51 54 56 57 65 70 69 53 60 62 48 58 60 62 65 87 84 79 74 73 76 80 70 63 79
5 10 26 36 39 41 42 44 43 43 45 48 51 55 58 62 67 70 65 53 51 72 70 44 49 57 53 53 67 96 81 77 77 80 89 88 79 89
14 31 40 42 39 39 41 43 44 47 51 54 56 59 61 64 66 58 49 48 64 74 73 56 42 56 62 58 56 77 99 95 91 80 78 74 74 80
34 42 44 43 38 40 44 46 47 49 51 55 60 62 64 61 50 46 45 50 72 80 72 40 39 52 69 68 67 76 85 98 97 95 93 83 67 64
42 46 50 51 47 44 46 49 53 54 56 60 63 64 60 60 62 58 49 50 68 74 53 30 34 63 69 71 70 78 74 80 96 97 98 98 93 72
43 47 55 60 60 57 55 54 56 59 59 62 63 60 65 68 67 67 62 54 65 63 40 28 32 68 74 67 73 89 88 80 82 83 95 97 97 95

GFSNE_700_rhum_048.txt.gz
RH
93 96 93 94 94 95 96 94 97 92 99 98 100 99 100 99 98 98 100 99 100 99 100 96 92 86 80 78 61 31 23 23 20 16 13 10 8 6
90 91 95 97 96 100 100 99 92 100 98 99 100 100 100 99 100 98 99 98 99 97 99 98 95 86 64 31 24 23 20 15 11 8 6 6 5 5
76 76 85 98 100 99 98 100 100 100 100 100 100 99 98 98 99 97 98 98 97 97 98 97 94 42 24 21 15 11 9 7 6 6 5 4 4 3
81 86 87 99 97 100 100 100 100 100 100 100 99 98 98 96 97 99 98 96 96 96 67 26 22 17 11 7 6 6 5 5 4 4 4 3 4 4
81 76 90 96 99 99 100 100 99 99 97 99 98 97 99 96 97 94 95 94 42 21 15 8 6 6 6 5 4 4 4 3 4 5 7 11 14 17
76 89 97 94 99 100 100 98 99 97 95 97 100 100 97 97 97 69 24 18 12 6 6 6 5 4 4 4 4 5 8 14 18 20 21 23 25 29
89 100 98 93 99 99 99 99 97 96 97 95 97 99 92 32 21 14 8 6 6 5 4 4 4 7 11 17 23 28 31 32 32 33 34 36 37 38
80 99 98 99 99 98 98 91 91 95 100 100 42 24 18 10 7 6 6 5 4 5 6 12 31 28 30 31 34 35 36 38 40 41 42 44 46 50
99 100 100 97 95 94 92 90 88 44 25 19 12 8 7 6 6 6 5 5 6 27 28 24 30 26 36 39 40 40 39 42 44 46 47 47 48 49
98 97 93 94 94 66 32 24 19 12 8 7 7 6 6 6 5 5 7 18 33 37 30 27 41 39 46 47 53 55 53 46 48 49 46 44 46 46
79 60 34 24 19 14 10 9 8 8 7 7 6 6 6 6 6 18 32 33 31 38 42 37 43 38 41 46 57 66 67 63 63 57 53 54 52 50
15 13 12 11 10 9 8 7 7 6 6 6 5 5 6 15 30 32 34 33 34 34 35 32 36 37 28 35 42 56 65 69 66 68 69 68 69 67
11 10 8 7 6 6 6 6 5 5 5 5 6 13 29 33 36 36 36 38 49 60 64 56 47 50 38 31 35 48 60 70 67 70 72 72 73 73
4 3 3 4 4 4 4 4 4 4 6 13 28 32 36 40 39 39 46 53 57 62 69 63 53 54 44 36 33 40 55 65 65 71 73 72 74 78
2 2 2 3 4 3 4 5 6 15 26 32 35 38 42 45 42 48 56 56 58 68 74 68 61 61 48 44 38 40 51 59 78 74 70 70 68 70
2 2 2 3 3 5 8 18 27 32 34 37 39 42 46 49 47 47 50 52 55 63 59 56 69 62 41 43 46 44 54 62 79 83 68 65 70 73
2 3 3 4 8 17 26 29 33 34 36 37 37 39 43 49 54 57 58 60 59 53 46 63 80 75 60 37 40 54 56 66 81 72 68 63 72 87
2 3 6 12 23 26 28 29 32 35 36 39 41 44 48 52 57 62 65 63 49 44 46 69 76 73 52 32 41 50 56 70 73 70 74 70 59 80
3 6 15 26 29 30 32 35 38 40 43 46 49 51 53 55 58 62 56 45 43 43 48 68 73 66 34 25 40 65 58 71 77 74 79 76 64 71
6 15 28 32 33 33 35 38 42 45 47 50 53 55 57 57 59 53 55 59 57 51 46 64 76 60 37 30 39 63 80 78 90 81 78 81 80 71
14 30 37 39 40 38 39 41 44 48 50 53 56 56 59 58 55 59 61 60 64 63 50 56 74 54 38 40 51 53 58 76 96 94 85 84 76 67
26 37 41 45 49 53 55 54 56 56 56 57 58 60 62 60 57 64 64 60 65 68 56 54 64 42 33 45 61 56 49 56 84 97 98 97 95 69
32 38 41 46 54 58 60 63 67 70 69 68 66 63 64 62 62 64 65 65 70 71 58 48 56 44 38 49 67 63 55 56 69 85 93 96 95 94

GFSNE_700_rhum_051.txt.gz
RH
70 74 81 88 80 98 99 98 96 99 100 99 100 100 100 99 99 100 99 99 100 100 100 100 99 95 92 86 81 90 93 83 72 52 26 24 23 21
77 78 78 82 85 97 100 100 100 100 100 100 100 99 100 100 99 100 98 98 98 95 89 92 82 89 88 84 88 91 88 66 30 22 18 13 10 8
82 88 90 94 99 100 100 100 100 99 100 100 98 100 99 99 100 98 99 96 96 94 94 86 88 88 92 89 79 53 36 22 15 9 7 6 6 6
77 83 85 87 90 97 98 97 92 98 99 100 99 95 99 100 98 96 97 89 91 90 92 95 100 95 53 26 18 11 8 7 7 6 5 4 3 3
54 64 67 81 85 85 92 98 95 99 98 86 99 98 100 98 96 92 94 96 97 99 97 64 24 14 8 7 7 6 4 4 3 3 4 5 7 8
58 55 59 71 83 81 89 100 98 85 100 99 99 98 98 94 98 100 100 99 75 24 13 8 7 6 5 4 3 4 6 10 14 14 14 15 17 18
74 63 80 94 98 85 96 99 93 99 99 100 95 90 99 100 100 84 37 17 9 7 6 5 4 4 4 11 19 21 20 18 20 21 22 21 21 21
99 75 88 100 100 100 93 94 96 94 93 94 99 100 98 54 24 12 7 7 6 5 4 4 8 16 22 22 26 29 30 30 31 32 28 22 20 20
100 100 95 99 97 98 96 95 100 100 93 61 32 22 14 8 8 7 6 5 5 8 15 25 22 20 29 35 36 36 38 40 41 40 37 29 23 22
99 99 97 84 94 92 88 63 36 24 18 12 9 8 8 6 5 5 5 6 22 30 24 22 23 21 24 30 35 39 44 48 48 47 46 45 45 44
91 94 80 54 27 18 14 12 11 10 9 8 6 5 5 5 5 6 21 27 30 28 28 28 34 26 29 29 34 42 47 53 54 57 58 56 56 56
14 14 13 12 11 9 8 7 5 4 4 4 4 4 5 6 18 28 31 28 30 37 37 38 40 35 20 27 28 29 30 40 45 50 58 64 64 62
4 4 3 3 2 2 2 2 3 3 4 3 4 6 16 27 31 32 27 31 38 45 48 42 44 45 40 33 30 32 34 34 34 40 52 60 64 66
2 2 1 2 2 2 2 2 3 3 4 6 15 24 27 29 33 33 32 36 43 47 50 48 47 46 41 45 46 38 34 40 38 40 50 64 70 69
2 1 1 2 2 2 2 3 5 8 16 23 25 27 29 33 37 39 40 40 42 48 57 65 59 46 44 55 53 49 32 27 46 53 47 60 66 67
2 2 2 2 2 3 5 9 17 22 25 28 30 32 34 36 40 43 47 51 51 56 61 58 47 44 49 58 59 49 31 26 37 50 44 60 70 71
2 2 2 2 4 9 16 21 24 27 29 32 35 37 39 41 45 47 49 52 52 55 46 44 44 47 51 57 58 52 33 29 50 52 49 60 69 73
2 2 2 4 11 21 23 26 28 31 34 36 37 38 41 44 45 50 52 54 55 46 49 54 51 47 48 54 64 41 27 28 50 52 49 57 63 74
2 3 4 11 22 26 27 28 30 32 36 38 40 43 45 48 50 54 56 55 50 55 54 55 63 60 47 44 54 48 34 44 60 58 63 70 70 70
3 4 9 23 31 33 34 34 36 37 40 43 46 49 52 52 55 57 57 54 57 58 55 58 68 72 58 54 56 45 44 63 79 65 60 58 74 80
4 5 17 31 36 38 40 46 51 53 55 56 58 60 60 58 57 60 60 58 58 59 56 60 71 78 64 57 64 40 33 65 84 78 66 58 67 73
4 8 25 37 40 44 50 55 59 62 64 65 66 69 70 71 71 68 65 61 59 60 60 65 73 76 56 54 59 41 29 46 77 80 84 87 92 63
5 11 26 38 40 43 52 58 62 67 70 70 71 74 76 76 79 80 82 80 74 70 70 73 74 65 46 63 63 40 33 40 62 59 64 82 95 93

GFSNE_700_rhum_054.txt.gz
RH
81 87 87 86 82 85 80 79 86 98 98 96 100 99 98 95 94 100 100 100 100 100 99 99 99 99 96 92 94 95 82 80 82 82 83 88 90 85
81 88 94 92 93 88 90 89 95 100 99 99 100 100 100 100 99 99 99 100 99 98 98 99 100 97 97 93 90 83 82 85 88 86 78 54 40 30
57 66 95 99 100 100 100 99 99 100 100 100 100 99 98 96 99 99 100 97 97 96 98 99 100 95 89 88 84 85 89 79 43 24 17 11 9 8
64 57 53 61 82 94 97 100 98 99 100 100 99 100 100 99 96 98 94 93 92 100 97 98 97 96 94 95 84 43 20 12 9 8 8 7 5 4
82 71 73 59 56 62 68 71 76 74 98 98 100 100 98 92 100 99 100 98 97 98 96 91 87 68 31 17 10 8 7 6 5 4 3 4 5 8
94 87 90 80 60 59 80 87 94 100 99 99 92 84 89 95 99 100 100 97 96 93 68 31 16 10 8 7 6 4 4 4 7 11 12 12 14 18
86 92 84 76 72 78 86 99 100 98 90 91 88 94 100 100 100 100 95 70 30 15 10 8 8 7 5 4 6 15 16 15 17 20 22 24 25 26
98 95 94 98 82 75 82 99 86 90 100 99 100 98 96 90 43 22 15 9 9 8 7 6 4 4 16 22 21 21 22 25 28 30 31 32 32 32
95 98 85 100 96 92 88 97 99 99 97 94 76 35 16 11 10 9 8 6 5 4 3 10 17 22 21 23 21 19 21 27 31 33 35 35 36 38
98 98 98 99 99 98 89 66 36 22 15 13 11 10 8 6 5 4 4 4 4 11 18 20 20 24 26 30 30 28 28 28 28 30 30 32 34 39
43 33 34 26 18 16 14 11 9 6 5 4 3 3 3 3 3 3 4 12 23 24 21 24 31 30 34 36 35 36 38 34 34 32 30 32 34 36
4 4 4 3 3 3 2 2 2 2 2 2 2 2 3 3 5 14 21 25 23 28 30 30 36 31 25 35 37 42 43 40 35 35 35 33 34 34
2 2 2 2 1 1 2 2 2 2 2 2 3 5 7 14 20 24 26 26 25 30 32 28 34 34 32 29 33 40 47 52 44 30 30 37 36 38
2 2 2 2 2 2 2 2 2 3 4 6 10 15 18 20 23 26 28 30 32 34 38 38 37 42 39 36 33 34 42 49 44 28 24 27 36 39
4 3 2 2 2 2 2 2 5 7 11 16 19 21 23 24 25 27 29 34 37 44 50 52 51 52 44 38 36 37 36 43 45 31 24 29 38 42
4 3 2 2 2 2 3 7 12 16 18 21 24 26 28 31 33 34 37 41 42 50 55 59 59 45 44 46 44 41 43 49 45 29 22 29 49 53
4 3 2 2 2 3 8 15 19 21 24 27 30 32 34 37 40 42 44 45 44 49 55 59 50 56 56 54 53 54 47 51 50 30 27 37 50 51
4 3 2 2 3 8 18 22 24 27 31 34 37 39 41 44 47 51 52 51 50 53 54 53 57 58 55 52 64 57 47 47 47 36 29 30 36 45
4 3 2 3 6 17 27 30 32 33 34 37 40 43 46 50 52 55 55 55 55 56 55 56 62 65 56 54 60 65 54 50 53 45 34 43 38 45
3 3 3 4 10 26 34 37 39 43 48 52 55 56 58 60 62 64 64 64 63 61 60 62 64 66 62 62 59 56 61 54 66 45 32 40 49 55
3 3 4 5 15 32 38 42 48 54 59 61 63 64 67 68 71 74 76 78 77 76 73 74 74 72 70 72 67 60 47 62 60 43 39 40 42 44
3 4 5 7 17 32 40 43 47 56 64 67 69 72 75 76 77 77 79 77 78 79 78 82 84 83 81 80 63 46 42 54 49 43 56 69 64 37
4 7 8 10 14 26 38 41 45 58 69 73 74 78 81 80 80 80 82 85 84 81 83 77 76 77 68 56 48 45 51 49 45 43 44 68 75 70

GFSNE_700_rhum_057.txt.gz
RH
48 55 64 71 84 97 92 96 99 99 98 93 90 88 97 98 94 99 99 98 99 100 100 99 98 99 100 100 100 100 98 97 99 93 95 85 75 75
57 57 57 58 70 80 98 97 97 98 99 99 100 100 85 100 100 99 99 99 99 99 96 99 99 100 100 100 100 100 100 99 93 86 82 78 78 75
67 66 56 61 58 58 86 78 83 97 99 100 100 100 99 99 99 99 98 90 97 98 99 100 99 99 100 99 99 100 95 88 85 82 73 52 30 18
61 79 83 84 75 65 65 68 82 89 99 98 98 94 100 98 94 96 97 94 100 100 100 100 100 99 100 97 94 88 82 66 39 22 14 10 9 9
87 85 86 90 87 82 72 67 78 100 98 100 99 100 100 100 100 100 100 100 100 98 97 96 95 90 88 75 47 28 18 12 10 9 8 6 4 3
98 97 91 91 90 80 77 80 69 85 98 97 100 100 100 100 100 100 99 98 97 94 95 90 63 32 18 12 9 8 8 7 5 4 5 9 11 12
92 100 95 87 88 85 79 75 82 96 90 97 99 100 100 100 100 100 100 82 41 24 18 13 9 8 8 8 6 5 5 9 14 14 15 17 21 23
96 97 87 87 93 100 100 100 85 94 100 95 100 100 98 96 75 27 16 11 10 9 8 8 7 6 5 6 17 19 17 17 16 15 16 19 22 24
87 90 91 99 96 97 98 94 97 97 91 68 41 22 15 12 10 7 5 5 4 4 4 4 4 13 24 22 21 22 21 20 19 18 19 19 18 18
46 46 42 50 58 50 39 29 21 14 11 9 6 4 3 3 2 3 3 3 3 3 7 23 23 24 28 32 31 30 28 24 22 24 23 23 22 21
5 4 4 3 3 2 2 2 2 2 2 2 2 2 2 2 2 2 3 4 10 17 19 20 24 30 35 37 37 37 36 35 40 43 41 35 27 24
6 3 2 2 2 2 2 2 2 2 2 2 2 2 3 4 5 7 12 17 20 21 19 22 27 27 31 37 41 45 41 38 42 46 46 42 32 23
8 6 5 4 4 3 2 2 2 2 2 2 4 5 7 9 13 16 18 21 24 25 25 27 31 30 29 31 37 40 39 37 38 42 47 42 35 26
12 10 9 6 3 2 2 2 2 2 4 6 8 11 14 16 18 20 22 24 27 29 33 32 32 34 34 34 35 36 36 36 36 39 45 43 36 24
14 10 8 5 2 2 2 2 3 6 9 11 14 17 20 23 24 26 27 28 30 34 36 38 38 39 39 40 34 40 38 40 44 41 42 42 36 26
13 8 6 4 2 2 2 3 6 11 15 17 20 23 25 27 28 30 32 35 38 43 44 46 46 44 44 42 40 43 45 43 52 49 39 42 41 31
9 7 5 3 2 3 3 6 12 19 20 23 26 28 30 32 35 38 40 42 44 46 49 53 53 51 48 45 45 50 49 54 62 58 44 40 42 36
7 5 4 3 3 3 5 11 21 25 27 28 31 33 36 39 42 46 48 51 52 53 53 54 55 56 54 51 56 56 55 56 60 57 46 39 36 41
6 5 4 3 3 4 7 18 30 34 36 37 39 42 47 52 55 60 62 64 67 67 68 68 67 66 61 56 58 61 60 62 64 58 44 43 41 44
6 5 4 4 5 5 9 23 35 41 44 49 55 60 64 64 67 71 72 71 71 72 73 79 82 80 75 70 57 57 74 71 68 51 42 47 49 46
7 6 5 6 8 8 9 20 35 44 47 50 55 64 70 71 73 76 78 80 78 75 73 81 88 86 80 76 62 58 61 64 53 44 44 49 48 43
10 7 6 8 11 12 12 14 27 40 46 48 54 65 75 78 81 84 86 83 82 83 83 85 88 84 84 81 68 60 52 49 49 54 63 60 52 40
14 12 10 11 14 17 19 21 28 38 45 49 56 69 79 85 92 92 90 91 95 94 93 81 79 80 74 70 68 61 56 51 52 51 49 51 49 52

GFSNE_700_rhum_060.txt.gz
RH
40 44 50 51 54 56 58 64 78 97 92 82 98 97 99 100 99 88 97 100 100 99 98 97 98 99 99 100 98 99 100 100 100 99 99 100 100 100
28 33 46 59 64 66 62 63 66 94 94 91 90 95 99 99 100 99 99 100 100 98 96 98 100 100 100 96 99 99 100 100 100 99 98 97 98 93
48 48 46 53 65 70 68 73 71 73 72 77 86 80 95 98 99 99 98 99 90 92 99 100 100 100 100 99 99 99 98 99 99 98 94 94 89 82
43 50 57 67 80 79 76 82 82 85 74 75 100 96 98 74 90 98 90 100 100 100 96 98 99 100 98 94 90 93 90 90 88 84 83 64 40 22
54 64 66 85 87 84 85 84 84 83 83 82 86 100 89 100 92 94 98 98 99 98 100 97 94 97 95 93 89 90 84 71 47 28 18 12 9 8
59 64 58 75 83 84 80 85 86 86 91 100 99 100 100 98 98 99 98 100 99 97 98 96 96 91 80 63 41 24 16 11 9 9 9 7 5 5
56 57 67 81 82 82 87 95 89 87 99 99 94 99 100 100 99 99 100 99 99 74 37 22 15 12 10 10 9 9 8 8 6 5 6 12 15 16
58 63 75 81 74 74 89 89 81 81 100 100 100 100 97 87 62 27 16 12 10 7 6 7 6 6 6 6 5 4 6 15 18 17 17 16 15 15
12 15 17 20 32 51 50 38 45 52 48 41 27 15 12 9 7 6 4 3 3 3 3 4 3 3 4 9 18 20 20 20 20 19 18 18 18 17
8 7 5 4 3 2 2 2 2 2 2 2 2 2 2 2 2 2 2 2 2 2 3 5 10 17 20 20 23 25 26 26 26 24 25 27 27 27
11 10 7 5 4 3 3 3 3 2 2 2 2 2 2 2 2 3 3 4 5 10 15 21 20 22 25 28 30 31 32 31 31 31 30 30 32 33
19 17 15 13 12 10 7 5 3 2 2 2 2 2 2 3 4 6 7 10 14 16 18 21 22 25 31 34 34 34 34 34 38 39 36 34 33 33
32 29 23 16 13 11 7 3 3 2 2 2 2 4 6 7 8 11 14 16 18 21 24 25 28 28 28 31 35 40 41 46 45 41 38 36 34 32
37 35 29 20 15 11 6 3 2 2 2 3 5 8 9 11 13 15 18 20 22 25 26 26 26 29 31 34 37 42 46 43 38 42 41 41 41 38
38 32 22 15 11 7 4 3 2 2 3 6 9 12 13 15 18 20 22 24 27 30 32 33 35 36 36 36 36 40 42 41 44 43 43 46 49 46
36 26 16 10 6 4 3 3 3 4 6 10 15 16 17 21 24 26 28 31 34 39 40 40 42 42 41 41 40 40 45 40 45 47 46 47 51 53
26 17 10 6 5 4 4 4 4 5 9 15 19 21 24 27 30 34 35 38 40 45 50 52 51 51 50 48 46 48 50 49 52 56 52 49 52 57
24 12 7 6 5 4 4 5 5 7 14 22 26 27 30 33 36 40 44 47 50 56 59 62 61 62 62 60 59 58 57 58 60 60 59 57 53 56
22 10 7 6 6 6 7 8 8 10 19 30 37 40 42 48 55 62 65 65 67 70 75 78 78 76 68 63 68 71 65 72 66 63 63 62 53 45
33 13 9 8 8 7 9 11 11 11 17 32 43 47 50 53 59 68 74 75 76 78 79 86 88 86 78 74 62 65 76 67 68 64 62 56 48 43
44 16 10 12 12 10 11 14 15 15 15 21 34 44 49 51 58 71 79 84 84 85 83 86 91 90 86 81 69 65 68 74 68 61 58 53 47 42
54 16 13 16 19 23 26 27 27 28 29 32 38 45 52 58 66 76 87 92 95 96 94 96 98 96 97 94 81 74 70 72 72 68 67 65 59 48
49 19 16 23 31 35 35 36 39 42 43 47 54 64 72 80 90 93 94 95 96 95 97 94 97 99 98 97 93 82 77 68 61 55 52 62 62 62

GFSNE_700_rhum_063.txt.gz
RH
23 24 23 23 27 34 50 60 66 74 62 61 60 64 68 81 76 87 83 97 99 99 99 98 99 98 98 99 98 99 97 97 98 98 99 99 100 100
20 21 29 39 44 46 48 58 59 67 69 70 77 75 76 81 78 80 87 98 98 98 99 98 98 97 99 95 99 100 100 99 100 99 99 99 99 100
26 29 41 44 42 49 55 59 70 70 71 76 81 93 96 97 94 95 94 99 98 97 91 91 89 99 100 100 100 100 100 100 100 99 99 99 100 99
34 41 47 48 52 55 60 70 74 71 72 75 79 100 88 87 99 87 87 92 93 93 99 100 100 95 99 100 100 100 95 93 95 97 96 99 98 93
37 44 49 52 51 53 55 65 63 69 78 80 83 81 93 92 91 87 96 99 99 99 96 92 99 100 100 99 98 98 95 95 97 95 89 88 79 55
47 49 47 47 49 53 55 54 60 63 65 72 72 85 85 97 92 100 97 100 100 100 100 98 92 92 93 94 93 88 82 73 67 50 33 19 12 10
52 51 52 57 59 59 59 67 69 68 66 69 75 83 96 100 99 98 84 92 93 91 80 74 62 55 38 27 19 15 13 12 10 9 9 8 6 6
18 14 9 7 7 15 32 24 11 6 7 15 17 13 17 19 17 13 13 12 11 6 6 7 6 6 5 5 5 4 4 4 3 4 7 14 16 16
11 12 12 10 6 4 3 2 2 2 2 2 2 2 2 2 2 2 2 2 2 2 2 2 2 2 2 2 2 4 8 12 14 16 18 18 18 18
15 16 15 14 11 9 8 7 7 7 6 5 4 3 2 2 2 2 2 2 2 3 3 4 5 6 9 11 13 14 15 17 19 21 22 24 25 26
24 26 26 25 23 20 18 17 15 10 7 4 3 3 2 2 2 2 3 4 5 6 8 11 13 14 14 15 19 21 23 23 24 24 24 26 27 28
32 33 33 33 33 30 24 20 16 10 5 3 2 2 2 2 3 5 6 7 8 11 14 16 19 20 20 22 24 26 29 28 28 28 29 31 32 32
36 36 36 35 34 30 23 18 14 8 5 3 2 2 3 5 7 8 9 11 14 16 19 20 23 27 28 30 30 32 34 38 37 39 40 39 38 36
39 39 38 36 32 24 17 12 8 5 3 3 3 4 6 8 10 12 14 16 19 22 26 25 25 30 31 32 33 43 48 48 47 48 49 43 39 39
42 41 38 32 23 16 12 8 5 4 3 3 4 6 9 13 15 17 20 23 26 29 32 33 32 34 36 38 38 41 42 48 50 51 48 45 44 44
44 44 38 28 19 13 8 6 5 5 5 5 6 9 14 19 21 23 27 30 33 38 37 38 39 39 40 44 43 45 47 46 48 49 46 45 46 47
46 47 41 29 19 11 8 7 6 6 7 7 8 13 21 25 28 30 32 35 37 43 48 50 49 49 50 53 52 55 54 53 55 55 52 50 52 54
43 49 52 38 20 12 9 7 8 9 10 10 11 15 25 34 39 43 45 49 55 61 66 70 71 68 67 68 69 67 66 64 68 66 65 57 54 62
44 43 47 54 32 14 10 10 10 11 13 14 14 14 17 32 43 50 54 57 61 69 77 81 84 86 75 67 74 81 75 79 76 72 72 68 58 58
46 41 47 59 40 18 12 15 20 23 25 25 24 22 22 25 34 43 49 51 58 66 78 89 97 96 89 84 72 77 96 90 86 76 71 68 62 60
47 40 48 66 40 17 19 26 30 31 29 30 34 37 40 42 45 50 55 63 70 78 82 89 100 98 94 91 80 78 88 96 94 86 75 69 66 63
46 54 78 74 42 21 28 33 34 29 28 30 36 44 49 51 58 65 72 77 84 90 90 92 98 98 98 99 90 83 80 89 97 94 87 84 76 62
63 88 85 77 44 25 32 37 35 30 31 34 38 43 46 50 58 63 68 73 77 82 90 87 90 97 97 100 98 86 82 78 76 76 74 78 75 73

GFSNE_700_rhum_066.txt.gz
RH
22 22 22 21 21 25 36 44 43 40 43 45 53 58 56 61 67 73 78 84 92 97 100 100 99 98 96 97 98 100 100 98 98 98 98 98 98 98
17 19 20 24 27 35 44 45 46 50 51 48 49 54 61 60 64 69 83 98 97 100 100 98 98 97 97 98 98 99 100 100 99 99 98 99 99 99
20 23 24 30 34 46 46 47 49 48 44 43 47 56 66 63 62 77 85 85 93 98 97 98 98 98 98 99 98 99 100 100 98 100 98 100 100 99
28 37 38 36 40 45 42 44 45 42 41 42 48 61 66 70 68 75 74 78 89 100 93 96 98 98 99 100 100 100 100 100 100 100 100 100 100 100
38 38 38 42 43 40 41 41 43 41 42 44 49 58 60 57 64 70 70 72 88 87 96 94 99 99 98 100 100 100 100 100 99 95 96 99 97 94
42 44 47 46 44 48 49 42 51 54 56 50 55 59 62 54 58 57 62 70 68 61 83 96 100 99 99 98 96 97 93 94 94 89 92 83 74 57
46 41 40 26 23 15 22 43 36 14 5 5 6 3 3 4 5 6 7 9 9 12 23 44 68 74 79 81 67 54 39 27 18 14 11 10 9 9
9 9 10 12 13 12 9 6 4 3 3 4 4 4 4 4 3 3 2 2 2 3 3 4 4 4 4 3 3 3 4 3 3 3 3 3 4 6
13 15 16 18 19 19 18 18 18 18 17 15 12 10 7 4 3 3 2 2 2 2 2 2 2 2 2 3 3 2 2 2 3 6 10 13 14 16
21 23 26 27 28 28 28 28 27 26 23 20 14 7 4 3 3 2 2 2 2 3 4 4 4 4 5 5 6 7 9 10 12 14 15 18 20 22
28 31 33 33 33 34 34 33 31 27 23 18 13 8 5 4 3 2 3 4 5 6 6 7 8 8 10 11 11 12 13 14 16 18 21 22 23 23
33 33 34 36 36 35 34 32 27 22 18 15 10 6 4 3 3 4 5 6 8 9 9 10 12 14 15 16 17 17 19 21 22 23 23 24 26 26
34 37 38 38 36 34 32 27 22 20 16 12 7 4 3 3 4 6 8 10 11 12 13 15 17 19 21 22 24 24 24 25 26 28 30 31 32 33
39 40 41 41 39 34 29 23 20 15 12 8 6 4 4 5 6 8 11 14 15 17 18 20 22 24 25 26 26 35 33 33 35 39 39 39 38 38
38 40 41 43 43 37 31 25 18 14 11 8 6 6 6 7 8 12 16 19 22 25 26 29 31 32 32 33 34 39 39 48 52 52 51 48 46 45
39 47 53 44 47 49 42 33 24 16 11 8 7 8 9 10 13 17 24 28 31 34 34 37 38 39 40 44 44 48 53 49 54 56 55 54 53 54
47 60 65 49 42 46 52 46 32 19 11 9 10 11 12 13 14 18 25 34 41 47 54 58 58 61 62 62 59 66 70 67 68 68 66 60 60 61
48 58 71 64 42 41 51 53 38 20 14 14 18 22 23 22 20 18 22 28 38 48 53 59 64 69 77 78 77 74 76 78 81 77 75 67 63 71
48 56 74 68 48 49 65 58 30 19 19 25 28 25 23 26 30 32 33 35 40 46 50 56 64 72 75 78 79 82 84 93 91 87 86 80 68 72
44 55 77 72 62 76 73 60 26 21 25 29 28 23 24 27 34 41 46 51 54 60 65 80 92 96 96 96 85 76 95 90 91 86 89 86 80 78
46 57 80 80 81 82 82 63 35 25 32 34 30 27 28 29 35 44 49 56 57 59 58 74 88 89 88 88 80 79 82 94 96 92 89 85 79 77
63 70 84 83 84 84 83 65 33 32 38 37 32 30 32 33 37 42 45 49 54 56 60 71 82 84 90 90 80 76 74 82 94 96 95 95 87 68
91 90 88 85 84 82 80 52 31 38 41 40 34 33 34 36 40 44 46 49 52 54 59 58 67 74 72 74 74 66 67 70 72 72 72 82 80 75

GFSNE_700_rhum_069.txt.gz
RH
11 14 16 18 21 22 24 27 32 42 43 46 46 46 49 50 52 56 58 53 56 74 86 95 93 98 98 95 98 98 96 95 96 96 98 97 97 97
14 16 18 19 22 24 30 31 44 47 46 46 43 40 44 44 50 58 61 64 67 73 79 90 98 98 98 97 94 95 97 97 96 97 97 97 98 99
22 22 21 24 31 34 34 38 44 43 43 39 33 33 36 44 51 54 58 61 70 65 77 78 89 96 96 96 96 96 96 97 97 97 98 99 100 99
28 25 28 38 36 36 40 46 42 41 41 40 38 32 42 49 52 52 55 58 61 65 71 75 84 83 96 99 98 100 100 99 99 98 98 98 99 100
30 39 37 39 41 47 46 46 45 45 39 46 43 42 48 43 41 42 48 51 60 61 56 56 74 90 96 99 98 98 94 100 100 100 100 100 100 100
43 42 45 47 47 40 31 23 44 45 23 4 6 18 7 4 4 4 4 4 4 5 9 11 23 38 40 53 72 80 85 91 93 94 94 95 91 86
33 19 13 9 8 11 11 11 9 6 6 6 6 6 7 7 7 6 6 5 4 3 3 3 4 6 8 11 17 22 25 31 36 37 32 21 17 13
10 11 13 15 17 18 19 20 21 21 22 22 22 22 21 17 13 9 7 5 4 4 2 2 2 2 2 2 2 3 3 3 3 3 2 3 3 3
14 18 21 22 24 26 27 28 29 30 30 29 27 24 21 18 12 7 6 4 3 2 2 2 2 3 3 3 3 3 3 3 3 3 2 3 4 6
23 25 27 30 32 32 32 32 32 31 30 27 23 20 18 14 11 8 6 4 3 3 4 4 4 4 5 5 5 5 6 6 7 9 10 12 13 14
30 32 32 32 35 36 36 34 32 30 27 23 21 20 18 13 8 5 3 3 4 4 6 6 7 7 7 8 8 9 9 10 11 12 13 15 17 20
33 33 37 39 39 38 36 33 30 26 24 23 21 17 13 10 6 5 4 4 5 6 8 9 10 11 11 12 13 14 15 15 15 16 17 20 21 22
35 38 39 40 40 40 39 35 31 29 25 23 20 17 13 8 6 6 5 6 8 10 11 13 15 16 17 18 20 20 21 22 22 23 23 22 23 23
38 38 38 43 50 48 43 43 39 35 31 28 25 21 16 10 7 7 8 9 11 13 15 18 20 22 23 25 27 30 30 29 28 29 29 30 30 31
38 38 40 48 54 59 48 44 49 48 44 39 32 25 18 11 10 10 11 13 15 17 19 23 27 30 32 32 32 36 38 44 45 43 40 39 40 41
38 38 40 43 55 65 59 43 42 50 52 44 33 24 16 14 15 17 18 18 18 20 22 24 31 40 48 52 53 54 58 55 56 56 58 57 55 53
38 39 40 44 58 68 65 51 49 58 60 49 35 23 19 20 21 20 20 21 22 24 27 28 29 37 44 47 47 56 66 68 73 76 73 69 73 75
37 38 40 43 56 71 70 66 70 68 63 49 34 24 22 24 22 21 21 23 29 33 36 37 40 44 46 47 51 56 59 66 81 82 81 77 73 82
36 37 38 45 59 72 74 74 75 75 70 53 35 26 28 28 25 24 24 26 31 36 40 44 50 53 45 47 50 63 72 85 84 84 85 85 76 80
36 37 40 55 72 76 78 78 78 76 70 54 34 29 32 30 28 28 28 30 33 38 41 50 63 59 50 48 38 61 80 69 77 78 80 84 77 77
45 57 52 78 84 82 81 80 80 78 69 43 31 32 36 34 31 31 33 36 39 42 44 51 59 59 55 50 42 49 70 78 83 80 80 79 78 76
94 87 76 88 86 85 84 84 82 80 68 45 33 39 41 37 33 34 37 39 43 44 46 48 52 55 57 53 50 52 58 70 77 77 77 79 73 56
97 95 83 89 90 87 87 86 85 85 70 43 36 44 43 38 34 36 38 41 42 42 45 46 52 58 63 68 69 63 60 59 62 63 63 76 82 76

GFSNE_700_rhum_072.txt.gz
RH
11 13 12 13 14 18 20 22 24 30 33 40 42 42 41 33 36 42 47 54 58 56 58 63 74 74 77 94 91 98 99 96 98 95 94 96 95 96
20 25 20 18 20 20 23 28 33 35 39 42 41 39 32 35 38 43 48 49 51 55 65 66 73 68 74 100 100 98 99 99 98 96 98 95 97 97
29 29 22 24 23 25 36 37 36 42 42 39 37 35 32 34 41 45 49 48 47 50 56 56 75 72 76 92 100 98 97 97 97 96 97 97 97 97
33 28 29 26 34 38 38 41 46 44 43 43 38 44 40 41 43 43 44 47 42 53 58 57 56 67 74 82 94 91 88 89 95 96 98 95 95 95
36 32 34 40 41 44 47 46 42 46 44 26 8 8 30 32 7 4 4 4 4 4 6 11 18 12 32 71 77 86 95 100 100 99 100 100 100 99
41 42 41 41 41 26 14 7 7 7 6 6 5 5 5 4 5 6 6 6 6 5 5 4 4 4 5 8 18 34 67 84 92 94 96 96 96 97
41 23 12 10 11 14 15 16 17 18 19 19 20 21 21 21 21 19 16 12 10 8 6 5 4 3 2 3 4 8 11 14 23 30 31 33 42 49
11 11 13 15 18 21 23 24 25 26 27 28 28 28 27 26 25 22 18 14 9 5 5 4 3 2 2 2 2 2 2 2 3 3 3 4 4 4
14 18 21 24 26 28 30 30 30 30 30 30 29 28 26 22 20 19 16 13 11 9 6 4 3 3 3 3 3 3 3 4 4 4 4 3 3 3
23 25 28 30 30 30 32 34 34 32 31 29 28 25 24 23 21 17 13 10 7 5 4 4 4 4 4 4 5 5 5 5 6 6 6 6 6 7
29 32 31 32 36 38 38 37 35 32 29 27 25 24 23 20 17 15 12 10 8 6 5 5 5 6 6 7 7 7 7 8 8 9 11 11 12 12
33 33 35 37 37 38 40 40 39 36 32 29 27 25 23 23 22 20 17 12 10 8 8 7 7 8 9 10 10 11 12 12 13 13 14 14 16 18
34 34 36 36 36 43 49 52 49 45 43 38 34 33 32 31 27 22 18 14 12 10 9 10 10 11 12 14 16 16 17 17 18 19 19 19 20 20
34 35 36 36 37 40 44 55 58 48 45 48 48 44 42 38 33 27 21 16 13 13 13 13 14 16 17 21 23 24 25 25 24 25 27 28 27 26
35 37 37 38 38 40 44 59 61 57 46 43 47 50 48 45 35 26 22 19 17 16 16 16 16 17 20 24 29 32 32 35 37 38 35 33 34 36
35 36 37 38 39 42 48 62 64 63 60 58 59 58 53 42 34 26 24 21 19 18 18 17 19 21 25 28 31 36 44 46 54 58 58 58 56 53
34 35 36 38 40 43 52 64 67 67 67 67 66 65 58 46 35 28 25 22 21 20 20 20 20 24 30 32 33 39 41 44 50 50 52 60 70 75
34 34 35 38 40 43 53 69 72 71 71 70 69 68 60 50 36 29 27 25 24 24 24 25 27 30 35 36 40 44 49 57 60 56 60 59 61 73
35 35 35 38 41 49 58 77 78 75 74 73 72 70 63 44 32 30 31 29 28 28 29 31 34 37 37 37 38 48 66 64 53 56 61 60 55 63
61 53 49 51 52 64 71 86 83 80 78 75 74 71 59 43 35 35 36 33 30 30 33 36 40 43 43 42 36 46 61 54 58 52 58 60 56 61
94 94 93 78 85 80 76 86 88 85 82 80 78 77 66 47 37 38 39 36 32 33 36 41 43 44 43 42 39 44 53 62 61 60 61 60 59 59
96 96 97 97 97 92 85 88 92 88 86 84 83 81 67 48 41 43 42 37 35 36 37 40 41 43 48 53 53 56 60 64 68 64 63 64 58 44
96 97 99 99 97 96 94 95 94 91 89 88 86 84 70 51 46 48 44 37 36 37 38 39 49 64 65 65 56 49 49 53 66 73 76 84 81 78

GFSNE_700_rhum_075.txt.gz
RH
28 20 13 15 16 19 17 21 23 24 26 30 32 40 39 38 34 28 30 36 40 42 42 48 57 55 59 67 72 78 86 92 99 98 94 98 93 87
21 15 18 24 27 20 22 22 24 30 36 35 42 40 36 31 28 29 36 40 39 40 40 46 54 49 62 67 62 92 97 97 99 98 100 98 98 97
17 20 25 32 27 24 25 26 38 39 40 43 42 39 38 38 30 32 42 45 42 35 30 39 48 51 59 61 73 93 98 99 98 99 98 98 99 97
24 28 34 33 30 28 36 40 42 46 44 43 39 13 22 42 42 32 9 5 4 4 4 4 5 12 19 25 55 73 77 98 100 99 98 98 100 98
33 38 37 33 34 42 44 47 44 19 15 25 32 19 4 3 8 10 4 4 4 5 5 6 5 6 5 5 6 23 55 80 87 88 88 93 98 95
42 40 40 43 43 44 24 10 9 13 15 15 15 16 16 17 17 16 16 17 17 16 14 11 9 7 6 5 4 3 6 23 38 76 98 100 100 100
47 47 38 18 11 11 14 16 18 20 21 22 23 24 25 26 26 25 25 24 23 20 15 10 7 6 6 5 3 2 2 4 8 15 24 37 54 56
31 11 11 12 15 19 22 24 25 27 28 28 28 28 28 28 26 25 23 21 20 18 14 14 12 10 8 6 4 3 3 2 2 2 2 3 3 5
10 12 17 21 24 26 28 29 30 31 32 32 31 30 28 27 25 24 23 22 19 16 13 11 8 6 5 4 4 4 4 4 4 4 4 4 4 4
17 23 25 28 30 30 31 35 36 36 35 32 30 28 26 25 25 23 20 18 17 15 14 12 10 9 7 6 5 5 5 5 5 6 6 6 6 6
25 29 32 32 33 36 37 36 38 40 41 38 34 30 28 26 25 24 25 24 23 21 18 18 16 13 10 7 7 7 7 7 7 8 8 8 9 9
31 34 34 35 37 36 35 38 40 42 47 48 44 39 35 33 32 32 32 31 29 29 26 25 18 15 13 11 11 10 10 10 10 10 11 12 12 13
34 35 35 35 36 36 36 37 39 46 54 54 50 45 45 45 43 42 41 40 38 35 30 26 20 16 14 13 14 14 14 15 15 15 16 16 17 18
34 35 36 36 36 36 37 39 43 53 58 58 56 49 44 45 48 49 48 44 40 38 34 26 20 17 15 15 15 17 18 19 20 21 22 24 25 26
33 34 35 35 36 36 38 41 47 58 62 61 60 59 59 58 57 55 50 49 44 37 29 24 20 18 17 16 17 18 18 24 25 28 33 35 35 33
32 33 34 34 35 36 39 42 46 57 66 65 64 63 63 63 62 61 56 50 42 34 28 24 22 20 19 19 19 21 23 22 27 31 34 40 44 48
31 32 33 34 35 35 38 42 46 58 71 72 68 66 66 65 64 61 57 48 39 32 30 28 26 24 22 22 24 26 27 30 37 39 37 36 42 47
31 32 33 35 35 36 38 42 52 65 77 77 72 70 68 67 66 64 56 46 37 34 33 31 28 25 24 27 29 31 35 39 43 42 41 38 37 49
32 33 36 41 43 42 47 56 65 74 80 80 78 74 71 70 69 68 62 49 38 37 36 34 29 26 26 28 30 32 41 50 47 41 41 42 35 44
33 38 56 96 88 81 84 77 80 84 80 85 84 80 78 76 76 74 64 48 41 41 40 35 31 31 29 30 29 34 42 40 45 45 46 48 47 49
76 92 97 97 98 99 98 92 94 93 86 89 89 85 83 81 81 79 67 52 46 46 44 37 34 33 32 32 32 37 48 62 63 61 58 58 52 48
97 98 98 97 97 100 100 98 99 97 95 94 92 90 87 85 86 84 71 55 52 52 46 38 36 35 36 39 47 50 51 57 58 54 48 50 48 48
98 97 97 96 97 99 98 97 96 96 95 95 93 92 90 89 90 88 74 60 60 56 46 39 36 37 41 53 60 56 52 51 55 59 67 86 76 72

GFSNE_700_rhum_078.txt.gz
RH
24 27 30 28 19 15 19 25 24 23 25 23 30 34 32 37 35 32 31 28 30 35 33 35 39 42 48 42 46 51 52 64 84 97 99 98 98 98
32 32 30 22 16 20 27 28 22 24 24 33 36 38 38 35 36 33 26 28 38 40 40 36 36 38 40 40 30 35 49 64 84 98 99 99 99 99
34 30 24 19 23 28 34 26 27 26 38 37 44 42 39 29 36 35 30 37 36 30 16 5 5 5 8 11 10 7 37 50 73 89 99 100 98 98
30 23 22 25 31 38 32 30 33 41 43 41 40 42 22 8 6 28 36 14 5 4 4 4 5 5 6 6 6 8 10 59 97 97 98 97 93 100
26 28 32 40 40 35 34 43 43 42 28 7 12 15 12 8 10 10 8 9 10 12 14 16 16 15 12 9 7 6 5 8 37 75 95 100 100 100
34 42 45 42 42 44 44 40 18 9 13 16 18 19 20 21 22 23 23 23 24 24 23 22 21 18 13 9 7 6 5 4 4 11 24 73 92 93
49 48 48 47 40 19 11 12 15 18 22 23 25 25 27 26 27 27 26 25 24 23 21 20 18 17 16 14 11 8 6 4 3 3 3 8 18 15
53 53 37 12 11 14 18 22 24 26 26 29 28 30 30 29 28 26 25 24 24 22 20 20 17 16 12 9 7 6 4 4 4 3 3 3 3 4
45 18 10 13 19 23 25 28 30 30 33 34 34 32 30 28 26 25 25 24 23 21 20 19 17 16 14 13 12 9 7 6 5 5 5 5 4 4
10 11 16 23 26 30 30 33 37 38 38 39 40 40 36 32 28 27 26 25 25 25 25 25 24 24 22 19 17 14 10 8 7 6 6 6 6 6
15 22 25 29 31 33 36 36 38 40 41 42 45 47 46 43 36 33 32 32 32 33 33 34 32 31 30 28 24 20 16 13 11 10 9 9 9 10
25 29 33 34 33 35 35 35 36 37 40 46 51 52 50 48 46 44 42 42 42 43 40 40 40 38 37 33 28 23 18 15 13 12 12 12 13 13
29 34 35 35 34 35 35 35 36 39 44 52 55 55 55 53 49 46 45 46 47 49 49 47 45 42 36 29 24 23 19 17 16 14 13 14 16 18
31 34 35 35 35 35 36 36 37 41 47 55 60 60 58 58 58 57 57 57 56 55 54 52 45 40 36 31 26 24 21 19 17 15 14 15 20 24
31 32 33 33 34 35 36 36 37 42 46 51 63 66 64 62 61 61 61 60 59 57 55 52 46 40 37 36 33 27 22 20 18 16 16 20 24 26
29 30 32 32 33 34 35 35 36 39 44 53 66 71 70 66 64 63 61 60 60 59 55 52 46 42 38 37 34 26 22 21 21 20 20 26 29 30
27 28 30 31 32 33 34 35 36 38 44 59 74 76 72 69 68 66 64 63 63 64 61 55 48 43 40 38 31 27 26 26 24 25 26 30 32 34
27 28 29 31 32 33 34 36 38 56 51 65 79 82 79 76 73 70 69 68 68 69 66 58 47 43 42 37 35 30 28 27 28 30 31 30 30 37
58 89 62 34 32 33 45 90 89 66 79 78 86 89 86 83 79 77 76 74 74 74 68 58 50 48 50 42 33 30 30 31 31 35 36 36 31 35
30 31 36 43 58 92 96 97 98 97 98 92 94 95 91 88 86 83 82 79 79 79 72 61 53 53 53 44 34 32 32 31 34 41 50 52 50 48
55 69 88 96 95 97 96 97 99 99 99 99 98 96 95 92 91 89 86 84 82 82 76 62 59 59 52 41 36 32 34 46 56 56 54 50 47 42
96 96 98 98 98 97 96 97 96 96 96 96 96 96 96 95 94 91 89 86 86 85 77 69 68 62 49 42 36 34 38 53 64 63 56 50 45 35
96 96 96 96 96 96 96 96 96 96 96 95 95 96 96 95 95 94 91 89 90 87 79 77 75 58 49 41 36 36 41 52 57 56 57 72 70 65

GFSNE_700_rhum_081.txt.gz
RH
20 21 23 28 30 32 29 19 17 22 32 29 26 26 31 34 36 36 33 31 25 27 34 34 34 31 34 36 39 42 45 46 47 75 98 95 98 98
22 25 28 32 32 30 23 19 22 29 28 28 27 34 37 42 40 36 32 35 28 33 39 41 34 19 18 15 10 12 12 23 43 86 92 100 99 98
30 32 35 35 30 25 22 25 32 32 27 28 38 42 44 42 24 19 35 37 38 31 15 10 5 5 5 5 6 6 7 6 28 65 89 100 98 100
36 37 38 33 24 24 28 34 36 32 30 42 47 38 41 39 28 8 4 6 13 10 4 5 6 9 11 12 9 7 6 7 7 11 66 89 88 80
42 42 39 29 28 31 38 39 34 39 44 46 14 8 10 11 12 17 18 20 20 21 22 22 22 22 21 18 13 10 8 7 6 13 23 45 97 100
46 44 37 35 41 43 40 41 45 45 25 9 14 17 20 22 24 25 25 25 25 25 24 23 22 21 19 18 16 14 11 8 6 4 6 23 55 82
48 44 47 49 46 48 49 41 17 12 15 19 22 25 28 28 28 29 28 26 26 25 23 22 21 20 18 17 16 14 11 9 7 5 4 3 4 10
52 56 56 55 46 19 11 13 18 22 24 28 28 30 32 32 31 29 27 26 25 24 22 22 20 18 17 16 15 13 12 10 9 7 6 4 4 4
61 61 51 20 11 13 18 23 26 29 30 33 36 36 36 36 34 30 28 26 26 24 23 23 24 24 23 24 24 23 22 20 16 13 11 8 7 6
65 36 11 13 20 25 29 32 33 36 38 38 40 41 42 44 44 40 34 30 28 29 30 30 31 32 32 32 33 35 33 30 26 22 18 14 11 9
14 10 18 25 30 33 34 36 38 38 37 36 37 43 47 49 49 48 45 42 39 39 38 39 39 39 40 41 40 40 38 35 33 29 23 19 16 12
12 21 28 32 35 36 36 38 37 36 35 36 43 50 52 51 52 51 49 46 46 46 44 45 46 46 45 46 44 42 38 36 36 31 27 24 20 16
20 27 32 36 37 37 36 36 36 36 36 40 48 55 58 56 56 56 56 55 55 54 54 54 54 54 52 49 44 42 40 38 36 35 31 27 22 18
25 30 34 37 38 38 37 37 36 36 37 41 47 52 61 64 62 60 59 59 59 59 59 57 56 53 52 48 45 42 43 41 40 36 32 28 21 17
25 28 31 34 35 36 36 37 36 36 36 38 42 50 64 68 70 67 64 63 61 59 58 56 55 54 54 52 49 46 43 42 40 36 30 23 20 19
25 27 29 31 32 33 34 34 34 35 36 36 39 49 68 75 74 70 67 67 65 62 61 59 57 59 62 58 53 50 50 44 39 34 28 25 23 22
24 25 26 28 29 30 31 32 32 34 35 36 42 93 84 79 82 80 76 72 70 68 66 64 62 64 64 60 56 52 49 44 38 31 27 24 25 26
22 23 24 26 27 28 35 68 54 34 43 77 96 77 82 84 87 87 84 80 76 74 72 67 66 71 68 59 56 54 51 43 35 31 28 25 26 30
21 23 45 72 90 94 96 94 67 76 96 96 96 95 96 93 92 93 91 87 83 80 77 72 72 76 73 68 64 59 51 42 36 30 29 29 29 35
25 26 26 28 29 30 35 62 94 95 96 96 96 96 96 95 95 96 95 93 89 86 82 77 80 78 76 69 68 61 49 42 36 33 32 35 43 46
34 63 44 43 55 74 91 96 96 96 96 97 96 96 96 96 97 96 96 95 94 90 85 85 85 81 78 73 72 63 48 40 36 34 38 42 46 45
96 96 96 96 96 96 96 96 96 96 96 95 96 96 96 95 97 96 96 96 96 92 89 88 89 84 80 78 75 63 51 41 38 38 42 50 48 39
99 98 97 97 97 97 96 96 96 96 96 96 96 96 96 96 96 96 96 96 95 94 94 94 93 87 85 83 74 63 51 41 39 42 52 68 61 55

GFSNE_700_rhum_084.txt.gz
RH
24 22 21 22 24 28 32 35 34 30 22 21 29 40 32 29 34 39 40 36 34 32 26 30 35 35 31 32 36 36 34 39 45 46 51 87 88 99
23 23 24 26 29 33 36 36 31 24 20 25 29 36 29 34 40 43 36 31 32 28 29 35 35 30 8 5 5 8 6 6 6 19 62 83 89 99
26 27 30 32 36 38 38 33 26 25 28 33 31 29 34 42 46 38 8 7 25 33 24 7 5 4 4 5 5 5 6 7 7 10 59 92 91 100
33 37 39 40 41 42 38 28 27 31 38 36 32 36 46 40 43 29 24 5 8 8 8 8 11 13 16 18 18 17 15 11 7 8 23 64 93 99
43 43 44 43 46 44 35 32 38 42 40 34 42 48 26 13 14 13 15 20 22 23 23 24 23 23 23 22 21 19 15 12 10 9 14 28 54 100
46 46 50 48 48 43 44 46 44 40 42 51 50 15 11 16 20 22 25 27 27 26 25 24 23 22 21 20 19 18 16 14 11 8 7 7 27 30
48 49 50 49 46 53 52 48 50 55 51 20 12 18 22 24 26 27 29 30 29 27 25 24 22 21 20 19 17 16 14 12 10 8 6 5 4 5
50 52 52 51 50 56 57 53 35 13 13 20 26 30 32 32 33 33 31 29 27 25 24 23 23 21 20 20 20 19 18 17 16 14 12 11 9 7
56 60 64 65 59 33 12 12 17 25 29 30 32 35 38 38 39 39 38 34 30 27 26 25 25 26 26 27 27 28 28 30 30 30 28 24 17 12
69 72 72 49 12 13 23 27 32 34 33 37 39 41 42 42 44 46 46 44 38 33 31 31 31 32 33 34 35 35 37 38 38 37 34 32 30 28
78 63 25 11 20 34 31 35 35 37 40 40 39 37 41 47 50 50 50 49 47 45 43 41 41 41 41 42 43 44 43 43 42 40 37 35 34 32
46 12 13 33 40 32 37 37 38 38 38 37 36 39 47 54 55 54 53 52 51 48 47 46 46 46 47 48 48 48 48 46 42 41 39 37 35 33
15 13 21 34 33 38 39 39 39 38 38 37 37 40 47 53 60 62 60 58 56 55 56 55 55 55 55 52 48 46 43 43 41 40 40 39 39 38
37 31 39 35 36 39 39 38 38 38 38 38 38 39 43 49 59 67 68 66 63 60 60 59 57 54 52 49 46 44 40 41 44 44 44 44 44 41
30 21 26 31 34 36 38 38 37 37 37 36 36 37 37 41 56 78 82 73 67 64 62 60 58 56 56 53 51 50 45 44 49 50 48 46 45 41
16 21 25 28 30 32 33 33 34 34 34 34 35 35 37 38 67 96 95 84 76 71 69 66 63 62 61 56 55 58 56 56 54 52 48 44 40 35
18 21 23 25 26 27 28 29 30 30 31 36 66 90 82 72 95 96 91 86 84 81 76 74 70 68 66 59 61 63 60 57 53 52 50 47 39 35
20 21 22 22 23 24 25 26 28 33 57 89 94 95 94 97 95 87 88 90 90 87 85 82 78 75 72 66 59 58 55 56 58 58 56 49 38 32
18 19 20 21 21 25 39 60 76 61 58 72 85 95 97 96 96 96 96 95 96 94 92 89 86 82 77 69 70 67 67 62 60 61 58 50 42 33
34 22 23 23 23 24 25 27 28 30 35 54 93 95 97 96 96 96 96 96 95 96 96 94 93 89 82 75 73 75 72 70 70 65 56 48 40 34
92 83 83 89 40 33 56 78 80 85 96 98 97 96 97 95 96 96 96 96 96 97 96 96 94 90 86 78 78 78 76 74 72 64 56 48 39 34
96 96 97 96 96 96 97 95 96 96 96 96 96 96 96 96 97 96 96 96 97 97 97 96 94 93 92 88 85 83 82 81 73 64 55 46 38 34
98 98 98 97 97 96 96 96 96 96 96 97 97 97 96 96 96 96 96 96 96 96 97 97 95 93 93 90 89 88 86 82 74 63 51 42 39 37

GFSNE_700_rhum_087.txt.gz
RH
28 26 25 25 26 27 27 30 36 39 39 36 34 30 35 45 40 33 33 40 40 35 33 27 27 33 34 33 32 34 32 29 36 39 40 41 74 92
32 29 29 30 30 32 34 36 41 42 40 35 30 28 32 46 39 34 42 46 32 34 30 28 35 32 32 13 8 7 6 6 6 6 14 39 69 89
39 35 36 39 40 40 41 42 46 45 40 32 29 30 36 35 34 45 50 28 6 10 26 28 11 6 5 4 5 5 5 6 7 7 8 41 82 93
42 41 42 44 45 46 49 48 49 45 36 32 37 41 38 33 45 48 45 24 14 8 12 10 9 9 10 12 15 17 18 16 12 7 9 32 67 82
46 45 44 47 48 46 49 52 49 42 39 43 50 44 38 51 42 28 28 14 15 19 22 24 23 22 22 22 22 21 20 19 16 12 9 30 95 94
51 46 44 45 49 52 54 50 46 46 47 47 42 45 56 43 9 15 20 24 26 26 26 26 25 24 23 22 21 20 18 17 16 13 8 11 53 99
53 48 46 50 53 55 56 56 55 52 50 53 59 58 17 13 22 28 30 30 30 30 29 27 25 24 22 21 20 19 18 16 15 13 12 10 10 12
54 48 46 53 55 58 60 63 64 67 69 59 17 15 25 30 31 32 34 33 32 30 27 25 24 23 22 21 20 19 18 17 15 13 11 10 9 7
55 52 57 63 66 68 65 50 30 19 18 23 30 32 34 37 38 38 40 41 41 38 33 29 26 25 24 25 25 26 26 26 27 27 27 26 24 22
59 66 71 75 74 48 15 13 21 34 36 35 35 38 40 44 41 41 45 47 47 46 41 35 32 30 31 31 33 34 35 35 36 37 37 36 35 33
75 80 79 66 24 14 25 41 45 40 38 40 42 43 39 38 42 49 52 52 51 50 48 46 43 41 40 40 41 42 43 44 44 44 43 42 40 37
85 81 51 14 18 37 50 54 54 44 44 41 41 38 37 38 48 56 58 57 56 54 51 49 48 47 46 46 47 48 49 49 49 47 44 41 39 36
92 54 19 17 32 60 72 48 40 40 40 39 38 38 37 40 46 51 58 64 64 60 58 57 56 56 55 55 54 52 48 44 41 40 38 36 35 33
81 25 42 30 53 69 52 41 40 40 40 38 38 38 37 37 39 43 51 66 71 70 68 64 62 60 58 55 51 49 49 47 42 41 39 41 41 39
55 37 49 38 40 37 38 41 41 40 42 38 37 37 36 36 36 37 40 57 92 96 95 91 66 64 61 58 56 56 55 50 42 41 44 46 43 38
42 26 47 25 26 30 33 35 35 35 34 34 34 34 34 34 35 48 91 94 96 96 95 86 76 72 69 65 64 64 62 55 46 42 50 49 43 41
39 16 15 19 23 25 27 28 28 29 30 30 30 31 34 61 88 95 96 92 96 94 91 88 85 82 79 75 72 70 68 60 48 50 51 50 50 49
27 16 16 18 21 22 23 24 24 26 26 28 55 85 87 92 93 94 96 93 98 95 90 91 92 90 87 84 82 79 74 65 52 48 48 51 57 54
21 16 17 18 19 20 21 21 22 24 33 50 53 36 33 56 80 97 98 94 96 96 94 94 94 92 90 91 90 86 81 70 60 55 53 55 60 62
36 27 57 51 37 24 21 22 23 24 28 31 43 49 52 68 90 96 94 95 96 96 95 95 95 94 95 96 94 96 94 78 71 71 68 64 64 64
96 96 93 76 67 66 48 48 83 82 40 69 96 96 96 96 96 94 95 96 95 95 96 95 92 94 96 95 96 96 95 83 78 75 73 69 70 68
98 97 98 98 98 97 96 94 97 96 97 97 98 97 96 96 95 94 95 95 95 96 96 95 95 94 95 95 97 96 95 90 86 82 79 75 74 68
98 98 98 98 98 98 98 98 98 99 99 100 100 97 96 96 96 95 96 96 97 98 96 96 95 94 96 96 96 96 95 92 89 90 88 82 77 71

GFSNE_700_rhum_090.txt.gz
RH
82 77 66 35 36 31 29 30 32 30 32 32 39 41 40 36 45 52 38 38 35 42 38 32 33 27 34 35 32 29 32 30 31 35 35 32 37 58
66 63 41 41 41 40 39 37 40 40 41 40 45 45 40 34 36 45 50 36 46 44 35 32 29 33 37 37 30 21 15 8 7 14 26 34 42 59
52 44 43 41 41 42 42 44 45 46 46 47 47 46 39 33 37 43 39 41 50 19 11 31 36 29 21 18 5 5 5 5 6 6 6 9 24 58
46 45 46 48 49 48 47 47 49 50 49 49 49 44 39 42 44 37 40 50 47 16 5 8 10 9 8 6 6 6 9 14 14 10 7 9 23 75
50 51 50 51 49 46 45 47 51 54 56 52 49 48 49 52 42 43 53 48 43 19 15 21 22 23 22 22 21 21 21 21 20 17 14 9 30 75
55 54 54 52 50 46 42 44 49 52 53 52 52 55 56 47 50 60 13 13 17 22 25 27 27 27 25 24 23 22 21 20 19 17 12 12 36 29
43 46 51 53 50 46 45 49 53 55 56 59 55 51 57 68 49 12 18 26 29 30 30 30 29 27 25 24 23 22 20 19 18 17 16 15 13 21
35 39 47 54 52 49 54 57 60 62 62 67 73 71 37 15 22 30 31 33 34 33 32 29 27 26 24 23 22 20 18 17 16 14 13 10 10 10
42 49 58 56 54 60 66 69 60 46 44 31 21 22 32 35 33 36 38 40 42 41 41 38 32 28 26 24 23 22 22 22 21 20 20 18 16 12
51 61 60 59 67 72 72 42 15 20 33 39 39 37 38 40 44 44 44 44 48 49 48 46 40 32 28 27 28 29 30 30 30 30 31 32 32 32
63 57 63 72 77 69 35 16 30 40 42 51 62 52 46 45 41 40 48 53 54 54 52 51 48 45 40 37 37 38 38 38 39 40 41 41 41 40
55 63 79 82 61 21 23 39 46 51 56 71 76 51 60 47 40 45 48 56 61 62 60 56 53 51 48 48 46 46 46 47 47 48 48 48 47 45
68 72 84 71 20 20 49 58 66 66 52 43 64 71 45 40 52 44 41 47 51 60 66 66 63 61 60 58 57 56 56 55 53 49 44 42 39 38
80 84 87 48 34 32 42 61 48 42 42 42 42 42 40 39 39 71 44 38 40 52 75 83 79 76 70 64 62 59 56 53 51 51 49 42 36 34
82 90 85 31 49 33 53 69 61 42 42 42 45 69 41 36 36 36 36 36 37 55 91 96 97 97 96 87 69 62 60 59 58 58 57 50 40 38
86 93 78 29 55 37 35 32 36 38 39 38 37 36 35 34 33 33 36 64 89 91 93 91 97 97 94 84 76 72 69 67 66 66 65 57 43 38
93 92 74 23 44 34 23 26 29 30 31 30 31 30 30 30 35 70 86 91 92 92 89 93 95 93 91 88 86 84 80 76 75 74 72 66 49 41
99 96 50 18 14 17 19 21 23 24 24 25 26 26 28 60 83 67 51 72 93 94 93 93 97 96 94 94 91 91 88 86 84 81 78 71 58 50
98 96 59 18 15 16 18 19 20 21 21 22 23 25 29 30 30 39 52 76 87 96 95 94 95 97 95 94 95 95 95 95 92 88 86 78 65 64
97 78 32 41 31 21 26 21 22 24 24 23 23 27 44 37 62 93 95 94 95 95 96 95 96 94 95 96 96 96 95 94 89 89 87 81 71 65
96 96 96 93 66 49 80 93 91 84 78 56 52 89 95 90 96 96 96 94 94 96 95 96 95 94 97 95 95 95 94 93 92 91 88 83 80 79
96 96 96 96 96 95 95 95 96 97 98 97 97 97 98 97 97 99 98 93 93 95 97 95 93 92 92 92 94 94 95 95 94 89 88 86 79 79
97 97 97 97 97 97 96 96 97 97 96 97 98 98 95 94 98 97 98 96 96 96 95 94 94 93 94 92 95 98 96 94 94 94 93 86 80 78

GFSNE_700_rhum_093.txt.gz
RH
65 71 73 68 72 57 41 43 40 39 38 36 36 42 41 42 41 42 37 42 34 45 35 40 39 37 34 30 33 30 28 31 36 34 32 28 30 38
75 68 61 57 50 44 42 40 42 42 41 41 44 44 47 48 47 43 35 35 38 38 41 47 37 37 32 34 37 35 31 31 22 21 34 34 31 32
80 70 55 44 41 41 42 42 43 44 42 44 46 50 52 50 48 44 41 47 43 41 51 37 29 38 37 36 36 25 7 6 6 6 6 14 32 39
69 52 42 40 42 43 44 45 46 44 42 43 48 52 54 52 48 45 60 52 48 54 55 7 6 13 12 7 6 5 5 5 6 7 6 7 8 20
49 41 41 41 45 45 46 47 47 45 44 46 49 53 54 53 50 50 54 46 59 58 37 17 13 19 19 20 19 19 18 19 19 19 18 12 9 15
44 43 41 37 36 38 45 49 49 46 46 47 53 56 58 59 57 53 46 59 32 28 21 19 24 27 27 26 26 25 24 22 22 21 19 17 13 22
38 34 32 32 33 35 44 51 49 47 48 51 56 59 56 52 54 60 58 18 16 25 30 30 31 30 30 28 26 24 23 22 21 19 17 16 14 16
39 39 39 39 38 43 51 52 50 52 56 58 62 64 66 69 39 16 21 29 34 34 34 33 31 30 27 26 24 23 22 20 19 18 17 16 14 15
46 47 45 44 47 56 55 53 60 64 56 54 57 44 23 26 36 47 56 49 37 38 40 39 37 34 30 26 24 23 21 19 17 16 15 12 12 10
54 48 45 51 58 58 60 66 68 49 17 22 32 37 39 41 46 50 51 53 50 52 52 51 48 44 36 30 26 24 23 23 23 23 23 22 21 17
54 49 58 58 55 63 70 70 50 20 29 42 52 59 58 57 48 46 58 56 67 81 83 57 53 50 47 40 34 31 31 31 32 32 33 33 33 34
52 55 64 60 68 75 70 42 22 35 42 55 64 68 53 64 75 52 48 78 67 60 82 88 65 58 54 50 48 46 44 43 42 42 42 43 43 43
58 58 70 70 78 79 37 24 39 52 58 66 52 55 74 72 52 50 66 80 70 49 52 73 86 79 68 62 58 56 54 52 50 50 51 51 50 48
60 62 76 81 87 55 21 37 59 66 63 51 43 44 46 43 43 40 43 50 55 50 44 56 73 82 95 94 84 69 62 60 58 55 52 49 48 47
66 79 84 92 90 44 35 35 45 62 59 46 43 43 47 80 65 43 39 39 36 36 45 67 76 84 94 93 98 96 95 90 81 66 58 56 56 56
86 93 92 91 89 36 44 34 44 59 46 40 41 41 41 39 37 35 33 33 51 79 80 86 90 93 97 98 98 95 86 82 83 73 66 65 65 65
92 96 98 98 88 29 35 42 34 33 30 33 34 33 33 32 31 30 34 84 74 61 51 88 94 95 95 95 98 93 87 89 90 90 91 84 74 73
92 97 98 97 90 47 24 37 29 23 24 25 25 26 26 26 26 28 49 53 38 63 71 80 89 96 96 95 95 96 94 91 88 86 85 84 83 80
93 97 97 96 96 53 38 15 17 19 20 21 21 22 22 23 24 27 34 36 46 85 97 95 97 94 91 94 96 96 96 98 96 92 91 94 95 94
95 98 97 97 87 52 21 26 20 19 22 20 20 22 26 24 23 28 53 92 95 98 96 96 98 93 91 92 94 96 95 92 92 93 92 91 93 95
93 96 97 98 93 67 47 62 89 94 80 79 93 93 88 66 54 71 95 95 97 97 93 94 92 91 90 88 88 91 90 90 92 92 92 92 95 96
97 96 96 96 97 96 97 96 96 95 95 95 94 95 96 95 95 97 98 98 98 97 94 96 94 90 89 89 90 90 91 92 90 90 92 94 92 92
98 97 97 97 96 96 96 96 95 97 98 98 97 96 96 96 96 93 93 93 99 97 94 95 94 92 90 89 88 90 91 91 90 95 95 90 88 89

GFSNE_700_rhum_096.txt.gz
RH
87 81 74 68 62 64 60 54 46 43 42 36 34 40 42 44 45 46 44 46 78 45 53 50 50 45 46 39 35 31 34 34 34 32 32 32 32 32
75 77 87 89 82 67 53 44 42 40 36 36 37 38 42 45 49 51 51 50 47 41 50 54 44 50 42 38 34 37 38 37 34 34 35 37 29 28
88 88 78 74 71 52 42 40 40 40 38 36 37 40 42 45 50 53 53 52 46 39 43 49 48 50 41 36 36 40 40 34 26 19 15 33 38 30
85 72 72 62 49 43 42 42 44 44 41 40 42 42 42 46 51 56 56 53 50 49 51 45 58 16 18 35 26 19 24 7 5 5 6 7 17 37
72 69 59 46 44 43 41 39 37 38 41 44 44 43 43 48 53 55 54 52 54 56 52 61 50 10 11 14 13 13 11 11 8 9 11 11 8 10
74 60 47 44 37 32 32 32 33 34 38 44 45 44 47 53 56 56 56 55 50 56 51 57 34 16 21 23 26 25 24 24 23 22 21 19 16 17
61 49 46 37 36 35 34 36 37 40 43 46 46 48 54 59 58 54 54 63 64 21 16 22 28 31 30 29 29 28 26 24 23 21 20 20 17 32
48 46 42 42 42 45 44 42 43 50 49 48 52 55 60 65 69 68 39 18 25 31 33 33 33 33 31 30 28 26 25 23 22 21 18 16 18 24
50 45 49 52 50 44 41 45 52 54 56 58 55 52 63 52 25 32 49 56 51 46 44 44 43 41 36 31 28 24 23 22 19 18 16 15 14 15
51 57 58 56 49 46 50 56 55 58 63 56 26 25 28 32 43 51 48 54 52 52 59 60 55 54 51 46 40 31 25 22 20 17 15 13 11 9
61 62 60 49 42 52 54 54 62 67 59 29 27 42 54 56 56 50 48 61 64 66 74 82 78 70 56 50 46 37 29 26 25 24 23 22 21 19
63 65 61 45 45 60 61 64 68 61 35 25 40 49 55 53 53 59 56 49 68 76 59 70 82 93 79 61 52 49 45 38 35 34 34 34 33 33
68 69 63 46 53 64 69 73 66 37 29 39 49 60 61 66 71 66 46 58 68 71 63 80 91 81 88 83 79 62 54 49 47 45 44 44 44 44
74 73 62 50 55 69 80 80 40 29 44 58 63 63 46 52 60 51 44 42 62 76 76 44 42 53 64 59 70 85 74 62 58 57 55 54 54 53
83 79 58 62 64 80 89 76 28 38 63 65 58 46 43 43 44 74 74 50 41 38 36 40 52 54 58 68 82 91 93 96 92 72 60 57 54 52
87 76 65 80 87 92 94 72 29 34 49 56 60 55 42 43 44 43 41 38 35 33 53 74 60 61 83 88 89 92 95 99 98 97 96 94 90 81
81 70 82 90 96 99 97 75 30 37 37 49 55 39 38 40 38 36 34 32 31 43 81 52 57 76 80 84 92 92 94 98 96 94 90 89 88 88
84 89 90 96 98 98 98 82 32 34 37 40 34 30 32 31 30 28 28 28 29 42 49 36 56 82 94 93 91 91 92 94 94 93 94 94 94 88
90 98 96 95 99 98 99 94 49 34 90 93 29 23 24 23 23 23 24 25 27 30 34 54 92 92 90 91 94 94 93 91 91 90 89 88 90 94
96 98 96 95 97 97 99 96 84 82 62 24 23 21 46 21 20 21 22 24 23 29 51 92 94 92 89 91 89 93 92 89 89 90 89 86 85 90
94 93 96 95 94 90 96 97 92 77 54 43 20 30 59 30 44 76 88 70 53 67 95 97 95 90 91 89 87 89 88 86 85 86 85 84 85 85
87 91 96 98 94 92 95 96 87 32 62 95 95 96 95 95 94 95 97 97 96 97 98 98 96 94 93 92 91 87 86 87 86 81 81 82 83 85
91 95 97 98 98 95 95 95 96 96 96 96 96 97 96 96 98 98 97 97 98 96 97 96 96 95 94 93 92 90 88 87 85 84 84 82 83 86

GFSNE_700_rhum_099.txt.gz
RH
80 88 94 92 84 73 80 80 72 64 51 43 39 37 35 35 38 40 40 43 46 49 50 47 45 40 43 47 43 43 38 32 32 33 35 36 34 32
97 98 83 77 81 85 74 72 68 54 41 39 35 37 39 37 39 39 40 43 48 50 48 47 42 43 49 45 46 42 38 40 41 33 32 38 38 34
98 89 86 86 79 70 64 61 48 43 39 40 36 35 38 41 41 42 43 46 48 51 50 45 43 53 51 55 41 39 40 43 42 36 34 35 37 34
87 89 92 82 71 64 52 43 41 42 40 37 35 36 40 43 43 44 45 47 50 50 48 44 52 47 53 34 24 43 39 41 34 14 12 10 26 41
88 92 90 75 63 51 43 43 39 33 31 31 31 32 35 39 43 44 47 50 50 52 51 54 51 61 55 8 10 13 12 9 8 6 7 7 8 25
94 91 88 68 55 45 41 36 34 34 32 33 35 37 42 45 45 48 53 53 53 53 50 53 53 56 28 14 21 24 24 24 22 20 19 17 15 9
91 85 86 64 49 43 38 41 41 40 40 40 39 46 48 47 51 55 56 53 52 59 57 19 19 26 30 33 30 29 31 27 26 24 23 33 32 21
86 87 86 58 47 41 45 49 48 45 42 42 50 52 53 53 56 60 64 62 34 22 22 31 42 52 47 50 36 31 29 27 25 22 20 37 26 91
90 88 70 53 45 49 55 52 46 42 44 53 54 57 54 47 54 54 29 35 46 48 46 48 49 48 44 40 34 33 26 23 23 22 20 18 17 34
90 75 58 51 55 60 56 44 40 49 54 58 62 58 38 27 25 33 50 50 52 51 49 53 57 59 58 58 55 48 34 26 23 20 18 15 13 14
81 69 59 56 63 62 55 40 44 55 55 65 64 48 28 39 48 48 48 49 57 64 65 69 72 78 79 72 56 50 41 31 27 22 20 17 14 12
80 70 60 62 65 62 58 42 49 65 68 67 55 30 36 52 54 56 52 49 52 60 64 68 66 70 84 92 90 67 52 47 37 29 27 25 24 23
83 72 65 65 66 67 60 46 58 72 73 61 37 31 40 54 61 58 67 56 50 66 64 70 71 80 78 73 86 74 74 68 52 46 41 37 35 34
90 79 73 74 74 71 60 52 60 76 78 49 32 39 52 60 58 64 71 64 58 49 66 71 66 42 38 42 48 46 50 68 76 61 53 49 46 46
96 92 86 84 77 73 62 63 70 85 80 36 38 53 63 62 49 45 47 46 56 53 43 41 36 36 53 63 64 67 70 77 88 94 86 64 59 58
98 99 94 85 80 77 62 78 83 93 74 30 44 64 65 50 44 43 44 47 58 48 39 35 36 70 56 69 74 75 80 84 91 92 92 95 91 70
98 97 92 90 84 70 68 85 95 98 70 27 35 60 56 59 52 42 43 42 40 36 34 32 44 71 41 54 70 81 80 84 87 93 95 94 92 94
98 98 95 89 74 76 85 93 98 97 79 28 34 41 50 55 42 38 38 36 33 30 30 29 33 50 38 57 78 83 85 83 85 89 91 94 96 93
89 88 86 91 89 92 95 97 97 97 92 47 31 35 45 86 54 31 28 27 26 25 26 26 28 31 32 61 84 89 87 85 82 82 84 86 88 91
87 94 98 96 95 96 95 97 97 97 98 79 36 50 92 95 58 26 22 21 21 21 22 24 25 31 49 84 87 89 88 83 82 82 83 83 84 86
96 97 98 96 96 96 96 96 97 99 98 79 55 71 77 51 32 34 56 74 35 41 72 73 47 64 87 88 87 89 87 86 84 82 80 78 79 78
97 94 89 90 97 96 96 95 96 97 99 87 82 80 62 31 27 45 72 91 84 93 96 96 94 94 91 90 91 90 86 87 89 83 80 79 78 76
93 96 93 91 96 99 95 93 96 98 97 95 91 32 44 93 96 94 95 96 95 97 98 97 95 93 92 87 83 90 88 85 85 84 83 78 76 77

GFSNE_700_rhum_102.txt.gz
RH
96 97 98 87 88 91 89 78 82 76 70 67 60 45 40 38 36 35 34 36 39 38 39 43 43 47 46 42 36 36 42 42 40 35 32 32 31 32
99 93 92 97 96 81 82 84 82 73 64 56 47 40 40 40 38 38 39 38 38 37 39 42 45 48 46 39 37 38 45 41 40 39 37 37 37 36
96 99 99 100 87 90 89 76 71 64 50 44 42 42 41 37 36 35 38 39 41 42 43 44 49 46 44 43 42 48 42 40 40 42 41 38 37 37
100 96 99 97 93 88 84 73 62 50 41 36 33 31 31 31 31 34 36 38 40 42 42 46 49 47 48 43 53 26 36 42 42 45 33 26 30 30
90 92 95 87 94 88 80 65 51 45 39 32 31 32 32 34 37 35 36 38 42 44 48 50 53 51 47 58 28 9 14 11 11 11 7 7 6 15
94 93 98 90 98 90 84 59 46 40 37 38 39 39 40 39 35 36 41 42 43 47 48 48 48 51 55 34 16 18 23 25 25 22 19 10 10 8
99 94 100 93 96 88 87 54 43 42 44 46 46 43 40 36 38 47 47 48 50 52 54 56 34 20 27 34 39 33 33 31 29 33 25 25 23 20
100 99 98 96 92 89 86 51 45 52 56 51 46 38 35 44 52 50 50 53 60 50 30 20 27 38 44 48 49 47 44 52 40 48 24 50 100 36
90 97 95 93 91 93 68 49 51 57 52 42 40 45 47 51 54 49 45 44 32 32 38 40 46 47 49 46 40 40 36 44 25 24 22 22 29 99
90 94 94 96 96 84 59 52 60 59 48 36 46 52 56 56 51 35 27 36 47 51 51 50 51 57 60 61 60 56 47 40 31 22 18 18 21 23
95 99 99 99 93 71 59 61 65 62 49 41 57 59 60 57 38 30 32 42 48 53 58 66 69 72 74 77 77 69 52 48 39 32 21 17 14 13
100 100 100 99 83 70 63 67 65 65 53 47 62 68 64 49 35 50 53 55 53 51 62 65 64 67 71 76 89 86 68 55 52 38 40 55 27 29
100 100 100 96 86 75 69 70 68 68 56 52 66 71 63 38 37 53 56 57 63 54 64 65 67 73 73 79 69 88 83 71 69 60 49 39 30 27
100 99 98 98 92 80 73 73 72 72 60 59 74 76 54 32 38 56 60 67 70 50 54 57 66 63 50 37 38 40 40 40 43 49 70 56 47 42
100 98 98 97 97 91 84 80 76 77 62 69 85 75 37 37 52 60 60 61 65 55 47 45 45 45 36 37 60 63 67 67 70 71 76 77 64 58
100 100 99 98 97 97 96 95 89 81 68 82 90 71 33 43 58 64 56 47 45 48 73 71 51 38 34 54 56 50 65 71 74 80 85 94 95 92
100 97 98 99 98 98 97 97 94 81 69 95 97 66 34 50 69 60 47 44 44 45 45 42 38 35 33 46 56 39 50 68 79 80 84 90 95 95
95 97 96 98 98 98 98 99 90 71 89 100 98 83 34 55 67 57 54 47 43 43 41 37 33 32 30 32 38 33 46 74 80 81 82 86 88 90
94 97 96 96 97 97 97 88 82 96 100 95 96 93 45 35 47 51 49 56 41 37 33 30 28 27 26 27 28 31 66 82 83 84 83 84 85 85
91 97 97 97 98 99 95 95 98 97 100 97 97 96 82 46 41 45 62 93 54 27 26 26 23 23 23 25 29 45 83 83 81 80 79 78 80 83
97 96 97 97 97 98 98 98 99 98 98 96 96 96 89 60 47 66 88 96 50 26 28 28 38 46 54 75 66 79 89 86 82 82 78 78 78 76
97 97 97 96 96 96 96 97 97 97 97 96 96 96 91 57 58 86 85 50 36 43 56 71 87 87 93 94 94 93 90 90 85 79 77 77 76 74
97 96 96 96 96 97 98 98 97 96 97 96 96 96 94 75 91 93 32 30 64 90 95 96 96 96 96 97 95 94 87 76 78 86 81 76 74 76

GFSNE_700_rhum_105.txt.gz
RH
90 87 88 96 100 98 91 86 87 83 78 83 81 71 60 52 42 37 34 34 32 35 38 38 38 39 39 41 41 43 36 34 36 36 37 36 34 38
95 93 92 94 97 89 88 88 82 85 84 75 69 60 50 42 40 37 34 34 33 34 34 34 36 39 40 42 46 41 38 35 41 39 37 33 34 34
99 86 99 97 94 94 96 87 88 88 83 73 61 51 44 40 37 34 34 33 32 33 31 30 38 42 43 44 44 40 40 43 42 36 38 40 38 36
90 98 96 97 96 96 99 90 86 86 74 66 53 46 40 34 33 33 34 36 36 34 36 40 41 41 44 46 46 42 48 29 38 39 41 44 36 36
85 94 97 100 100 100 96 85 90 88 72 58 48 39 34 35 38 39 39 39 39 42 43 43 45 45 44 46 49 51 20 13 15 12 21 13 11 13
89 97 98 100 99 100 96 90 92 89 79 53 43 38 40 42 43 44 42 42 46 45 47 50 47 45 45 48 45 18 13 20 23 22 19 12 9 9
77 91 99 100 100 100 100 95 95 90 85 53 42 43 49 49 45 43 45 47 48 49 52 54 52 49 28 23 32 37 32 31 33 30 39 31 25 20
65 99 99 99 100 100 98 98 94 87 86 50 46 56 53 44 46 44 50 51 50 54 55 42 26 23 30 42 45 47 49 46 47 49 49 53 61 53
74 98 98 100 98 98 99 97 96 92 77 51 59 57 42 39 40 53 56 51 47 42 31 31 32 37 40 44 48 40 45 38 43 46 27 38 85 99
66 89 99 100 99 100 100 99 96 94 66 53 60 55 40 43 50 58 50 33 30 36 46 48 49 50 52 56 56 55 50 38 36 28 22 22 23 69
72 77 94 100 100 98 98 100 98 84 61 59 63 58 44 52 62 61 36 30 38 48 51 56 60 64 67 68 72 73 71 62 51 45 26 20 17 19
86 87 90 97 100 100 99 98 99 75 64 64 64 61 51 58 68 55 34 38 46 51 52 57 68 66 65 70 69 75 83 69 55 48 39 65 39 18
100 100 100 100 100 98 100 98 96 76 67 67 66 64 53 70 70 50 41 54 56 54 54 61 66 64 67 70 76 80 92 92 79 67 56 55 39 35
94 100 99 99 100 99 95 100 95 80 74 73 73 68 60 74 68 43 37 54 56 61 61 64 65 62 71 56 39 39 42 44 43 40 43 55 56 48
93 97 99 98 98 98 98 98 97 94 89 86 84 72 70 73 75 40 36 48 60 70 65 51 54 49 47 45 35 51 59 59 63 65 64 63 68 63
99 97 98 100 97 98 98 97 97 98 97 97 97 91 73 81 68 37 42 60 65 67 70 58 50 62 56 44 35 53 54 43 48 64 72 75 79 86
89 94 93 88 94 96 96 96 98 98 98 98 97 88 84 90 67 38 45 58 60 53 51 50 63 62 46 38 34 39 57 46 35 55 75 78 82 90
99 93 84 86 98 99 97 100 97 97 97 97 97 79 86 93 60 41 54 66 55 47 47 48 47 44 40 35 33 31 33 35 30 62 81 84 82 86
97 90 87 94 100 100 99 97 96 97 97 96 88 84 98 97 74 40 56 70 56 50 47 47 44 41 35 32 30 29 29 27 32 74 84 86 84 83
92 90 90 97 100 97 97 97 96 97 97 96 99 100 100 98 90 54 51 58 56 58 58 52 38 33 33 44 24 25 26 35 54 82 84 82 82 81
98 96 99 97 97 97 96 96 96 96 98 99 97 98 98 96 97 91 64 50 71 72 80 96 50 27 49 48 54 60 65 72 70 87 85 83 81 79
99 96 97 96 97 97 96 96 96 96 97 97 97 97 97 97 96 93 81 73 87 94 95 94 58 38 29 43 76 96 95 95 91 88 88 80 78 76
96 96 95 96 96 96 95 95 96 96 97 97 96 96 96 96 97 91 67 72 90 95 76 43 28 37 79 94 96 96 97 97 96 93 88 68 66 73

GFSNE_700_rhum_108.txt.gz
RH
97 97 100 94 95 100 93 88 98 93 96 91 86 82 82 78 68 57 51 42 38 36 33 31 31 30 30 30 34 38 38 39 36 33 31 33 38 38
100 100 99 83 74 92 97 94 98 94 89 87 85 82 75 66 60 49 45 42 36 32 31 31 32 30 28 33 35 40 41 41 37 35 38 38 38 35
96 100 92 94 99 100 100 99 96 93 96 88 89 85 71 58 51 45 42 34 32 32 33 34 32 32 35 36 38 40 40 40 38 40 39 36 39 37
95 99 99 100 100 97 100 100 98 100 98 97 90 80 66 54 46 40 35 34 37 37 38 35 32 38 39 40 40 41 41 44 40 28 36 38 39 41
80 92 99 97 96 91 100 98 84 100 98 98 94 88 72 53 44 38 38 41 40 40 37 33 40 42 42 42 41 43 46 38 15 16 12 21 26 16
72 79 94 95 99 100 100 84 100 93 99 98 98 89 81 52 43 43 46 46 45 42 38 44 45 45 46 45 45 44 32 15 18 20 19 18 10 10
54 58 63 67 83 92 100 93 100 100 99 98 96 90 84 55 44 48 52 46 41 40 48 48 45 49 52 46 26 28 28 30 29 30 33 47 30 28
42 42 46 56 80 76 93 93 97 100 99 98 98 94 87 56 47 54 47 36 42 49 49 47 49 44 34 25 33 40 44 48 47 42 48 47 50 46
39 46 48 57 99 99 99 100 96 100 95 91 97 92 88 55 52 52 38 34 45 52 48 46 35 29 27 30 36 42 44 44 48 43 46 44 44 54
43 56 57 60 90 96 98 99 96 99 100 99 99 96 79 56 60 52 39 44 53 50 37 34 37 44 47 49 51 54 53 49 40 35 36 26 36 60
55 71 80 94 100 97 100 99 100 98 94 100 97 96 67 62 64 54 42 57 57 46 33 42 49 51 54 58 63 68 70 68 66 52 39 24 20 23
51 73 97 100 100 100 98 100 98 100 99 98 100 95 68 66 64 56 49 63 53 39 38 46 51 56 65 68 66 68 70 74 75 64 45 28 22 17
61 86 100 100 99 99 100 100 100 100 97 98 98 95 73 70 68 59 56 68 47 37 44 50 53 62 64 63 65 69 82 84 86 77 60 49 37 58
56 73 87 99 98 93 99 96 100 99 92 97 97 96 80 76 72 62 66 66 41 49 56 54 55 64 63 71 70 50 48 62 67 60 55 54 63 63
67 67 93 98 98 97 96 97 100 98 99 98 100 98 95 89 79 66 71 61 38 54 57 60 61 65 62 56 54 40 37 54 59 60 62 60 47 46
100 100 97 94 98 95 93 97 98 97 97 97 98 97 95 91 91 95 90 49 36 50 58 68 68 56 57 49 48 46 37 54 51 40 38 57 66 68
87 90 93 95 100 99 97 97 97 96 96 97 97 97 97 96 97 96 94 42 38 45 59 69 74 63 52 68 62 46 36 36 46 48 34 41 63 72
92 91 92 96 90 84 89 95 98 98 97 98 97 97 97 97 97 95 63 39 43 56 64 64 64 57 54 75 60 41 37 34 32 33 31 36 71 75
90 90 92 94 96 98 98 97 97 100 97 96 96 97 96 97 94 92 57 40 45 52 57 63 52 51 55 62 58 49 36 32 30 29 26 46 78 80
97 100 97 97 98 100 97 98 96 100 96 96 96 97 96 97 93 94 54 46 48 56 64 69 50 51 50 49 62 58 57 59 27 26 39 64 81 81
97 100 96 96 97 97 96 96 95 96 96 97 96 96 97 96 96 94 76 60 57 57 60 63 53 69 67 49 54 42 70 75 40 62 76 73 88 82
95 96 98 96 97 97 96 95 95 95 95 93 95 96 97 96 98 96 94 90 78 83 80 70 67 80 92 96 78 47 42 49 69 89 93 87 91 86
94 96 94 95 96 96 96 96 95 95 96 96 96 96 96 96 96 97 96 96 96 89 63 59 86 95 95 94 77 55 56 71 88 95 96 95 95 91

GFSNE_700_rhum_111.txt.gz
RH
96 100 100 100 100 98 99 100 100 100 100 99 100 100 100 90 82 76 70 66 58 48 42 38 34 31 30 30 30 29 33 32 34 34 35 34 32 30
98 98 100 100 99 98 100 98 100 100 100 100 100 100 94 93 88 79 68 55 49 43 39 33 32 32 32 30 29 33 34 34 36 37 36 34 32 34
97 99 97 99 98 99 100 98 99 100 100 100 100 97 94 91 82 66 54 50 45 38 32 31 34 34 34 28 34 35 36 39 40 38 37 36 35 33
83 85 93 94 99 100 92 99 100 100 100 100 100 100 100 90 82 70 51 44 39 35 33 35 38 37 33 32 37 38 39 40 40 40 38 31 29 31
80 80 77 76 76 79 98 100 100 99 100 99 100 100 97 95 84 76 59 46 39 36 37 39 40 38 32 35 37 42 41 42 41 35 21 17 15 25
75 80 81 79 80 77 100 94 95 100 99 100 100 98 99 100 97 82 71 48 42 42 44 43 39 34 33 37 42 45 44 40 32 20 14 18 16 13
40 45 52 60 67 74 96 99 100 100 97 100 99 100 98 98 99 96 77 50 46 50 46 38 34 37 41 40 46 45 30 32 30 25 27 28 41 36
31 31 33 38 42 44 58 64 100 99 100 100 98 98 100 98 99 96 75 52 53 52 42 35 39 46 44 45 41 31 34 41 44 46 41 41 46 45
30 32 34 36 40 45 51 66 59 97 99 100 98 99 92 94 99 91 84 55 51 50 37 40 50 48 45 35 28 29 36 43 43 46 49 48 46 48
20 27 32 37 50 58 60 72 83 94 98 99 99 98 98 97 94 96 75 58 56 50 43 50 50 42 33 34 38 44 47 51 51 48 38 39 37 31
16 29 35 37 45 63 70 94 100 92 94 79 83 86 100 96 99 99 75 58 61 51 53 54 42 36 40 44 47 52 57 61 62 63 58 40 33 25
24 33 45 56 80 100 98 100 100 100 100 98 100 98 100 98 99 98 74 64 66 55 57 51 38 40 46 50 54 62 65 65 66 70 69 57 44 24
12 25 46 61 97 77 86 89 91 94 98 93 84 92 88 98 91 95 79 72 69 58 61 45 37 44 50 54 62 62 64 68 72 77 74 62 54 39
10 16 33 56 72 97 92 78 72 79 96 93 84 89 97 98 97 92 88 80 72 63 63 46 37 48 52 59 62 64 67 62 82 93 88 78 70 61
23 36 56 64 96 100 100 96 97 91 97 98 96 95 96 97 97 95 93 84 76 69 62 42 45 54 55 64 64 68 50 38 42 53 58 57 50 48
49 46 68 80 100 100 100 98 96 92 97 93 97 97 97 97 97 98 97 96 84 83 63 41 56 56 59 66 63 56 50 38 48 55 43 37 44 62
56 58 64 87 100 98 99 98 97 94 96 97 96 97 97 97 96 97 97 97 97 95 85 46 57 59 64 67 64 53 49 46 38 44 49 46 33 41
61 64 75 92 99 100 98 98 97 97 98 99 99 97 95 96 97 97 97 97 97 96 96 52 55 64 70 63 56 55 63 50 39 36 34 31 32 34
69 61 77 97 100 98 97 98 97 99 99 95 96 96 97 97 96 96 96 97 97 97 84 41 51 66 76 69 57 61 80 51 40 36 32 29 28 35
79 62 78 100 98 98 98 98 96 96 96 96 100 98 96 96 95 96 96 97 96 95 55 44 55 61 74 71 58 59 61 59 48 36 36 40 28 48
79 65 71 98 97 98 98 96 98 98 96 98 100 99 93 98 94 96 96 97 94 46 42 48 58 61 81 75 61 57 51 70 67 61 73 70 65 76
81 77 64 91 98 99 99 97 97 99 96 95 98 99 94 95 96 96 96 96 71 51 46 53 58 63 85 74 69 63 48 54 50 70 70 70 77 80
78 82 73 76 98 99 99 97 98 97 97 98 97 97 97 98 96 96 96 95 71 66 55 79 66 68 92 90 88 91 87 87 82 57 52 60 70 90

GFSNE_700_rhum_117.txt.gz
RH
100 99 96 98 98 99 100 99 98 96 90 96 99 100 100 97 98 98 100 100 100 99 96 89 78 60 51 44 37 31 30 30 29 26 22 26 28 29
99 98 99 100 100 100 98 100 100 100 100 98 100 100 99 98 96 97 97 100 100 99 95 98 64 48 44 41 34 30 33 31 28 25 25 26 32 33
100 100 100 100 97 99 100 99 100 100 97 100 98 100 99 99 98 98 100 96 98 99 98 88 62 51 44 38 33 34 35 33 33 27 26 30 34 34
98 100 100 99 94 90 89 92 92 90 90 86 83 88 100 98 88 98 100 99 99 100 97 90 67 52 44 39 38 36 37 38 34 30 33 36 37 36
90 84 80 76 68 61 62 65 73 79 84 84 81 81 87 92 98 99 99 100 100 99 100 97 92 62 45 40 41 43 42 40 38 38 37 42 38 36
33 31 31 30 30 31 31 30 30 31 34 39 48 58 84 92 96 95 98 100 99 99 100 99 97 95 67 50 38 42 38 36 38 41 44 39 36 33
18 16 15 14 14 13 13 16 21 25 31 34 35 38 56 80 99 98 99 99 99 100 100 99 98 96 78 52 44 41 38 43 46 44 40 35 34 28
8 9 9 10 10 11 11 11 11 10 11 23 35 48 54 72 100 94 94 99 74 100 89 100 99 99 65 51 48 39 38 45 51 42 34 40 41 39
5 5 6 7 7 7 9 10 12 15 20 32 42 51 97 99 97 70 73 97 98 93 100 100 96 86 57 54 52 43 49 50 47 32 36 40 42 44
3 3 3 3 3 4 4 8 12 14 14 14 24 34 72 89 84 100 99 100 98 98 98 95 87 86 78 60 49 45 53 46 30 31 35 44 46 42
2 3 3 4 4 5 7 8 10 13 16 16 39 89 70 87 96 78 89 99 98 99 98 99 99 86 71 59 51 50 50 31 29 38 47 50 51 46
3 4 4 4 4 5 6 7 9 12 16 16 49 96 100 91 100 92 99 98 97 98 98 98 98 86 69 61 53 50 35 35 47 50 54 59 59 56
4 5 5 5 6 7 10 13 16 18 18 20 70 83 100 93 96 99 95 100 96 99 99 99 97 91 74 64 53 39 36 48 54 58 63 61 60 62
5 6 6 7 10 14 14 16 25 31 32 32 64 93 96 92 95 96 97 97 98 97 97 98 98 92 79 63 44 38 46 55 64 67 64 65 67 66
6 6 7 11 16 19 23 31 38 42 49 68 67 90 87 96 98 97 96 98 98 97 96 96 96 97 90 66 39 44 59 67 68 65 71 80 78 74
9 11 13 16 18 21 27 43 49 57 85 98 81 90 97 90 94 97 96 96 99 98 96 96 97 97 94 61 37 51 69 70 67 66 67 78 73 73
15 17 19 20 19 21 33 51 54 72 85 96 97 96 98 97 97 97 96 97 97 98 97 97 96 98 97 67 38 55 74 72 72 51 46 55 48 44
22 23 24 29 23 22 36 52 58 81 96 96 92 94 97 95 95 96 100 99 98 96 96 95 96 96 96 84 41 55 75 82 94 51 50 55 51 50
28 30 32 35 38 27 44 58 60 80 97 97 96 91 90 99 92 96 97 100 97 98 99 98 96 96 96 95 65 59 93 96 95 60 49 46 44 35
32 36 42 44 49 36 47 62 64 77 93 96 96 94 92 95 95 98 98 96 96 96 96 96 97 96 96 96 95 96 96 96 96 79 67 49 38 33
34 41 47 48 54 51 56 66 70 71 90 91 92 95 93 94 94 98 98 96 96 96 96 95 96 96 96 96 95 95 96 96 95 86 86 55 40 33
43 47 48 52 60 63 68 72 73 72 91 91 88 93 97 96 93 96 96 96 97 96 96 96 96 96 96 96 96 96 96 96 95 95 94 88 72 54
50 52 60 64 69 71 74 76 72 73 89 90 91 92 96 97 96 96 96 96 96 95 95 95 95 96 96 96 96 96 96 96 97 96 94 84 80 95

GFSNE_700_rhum_120.txt.gz
RH
100 100 100 100 100 99 98 98 98 98 97 98 99 92 97 100 94 97 99 87 97 98 99 100 100 92 87 76 70 54 44 42 34 29 28 28 28 22
100 100 100 99 100 100 98 99 100 100 100 98 99 98 100 87 99 96 99 96 97 96 99 97 98 98 93 84 63 45 37 37 32 30 30 32 30 26
100 100 99 100 99 99 99 99 100 100 99 93 93 88 84 83 82 81 95 100 98 99 100 99 100 100 99 99 75 51 39 35 32 33 31 34 31 28
100 99 100 98 92 100 100 100 91 86 82 79 78 76 76 79 80 80 84 84 91 100 100 100 100 99 100 100 91 66 58 36 34 36 41 34 31 32
100 99 99 95 91 84 80 69 57 46 41 36 32 34 36 38 42 57 89 96 99 98 99 98 100 100 100 100 97 96 54 43 33 36 39 36 29 31
43 39 38 34 31 30 30 29 29 28 27 26 23 24 24 28 35 40 80 98 99 94 100 91 98 99 100 100 100 99 75 41 40 44 41 38 39 39
14 12 10 9 8 8 8 9 9 9 10 10 10 10 10 11 16 27 51 65 85 82 91 99 99 99 98 99 99 99 72 52 48 46 41 43 44 41
6 6 6 6 6 7 7 7 7 7 7 7 8 9 11 12 13 18 30 100 69 63 100 98 100 98 98 99 100 98 98 65 52 43 50 46 44 35
5 4 4 4 3 3 3 3 3 4 5 6 6 9 10 13 14 15 29 36 96 84 100 99 100 99 84 99 100 100 97 72 53 45 53 50 36 38
4 4 3 3 2 2 2 2 2 3 3 4 5 6 11 15 35 51 37 63 97 94 93 100 98 98 80 99 99 99 74 60 52 49 55 37 36 38
3 3 2 2 2 2 3 3 3 4 4 4 5 6 8 13 36 55 99 100 99 98 100 97 97 98 98 99 99 94 76 62 54 57 38 34 37 42
3 3 3 3 4 4 4 4 4 4 5 6 7 10 15 16 18 62 96 95 99 98 96 99 98 99 99 98 98 98 87 64 58 48 30 33 44 50
3 4 4 4 4 5 5 6 7 9 10 11 13 14 18 26 59 86 80 99 95 89 99 98 95 97 97 96 97 98 81 63 55 31 36 48 53 58
4 4 5 5 5 7 9 10 11 13 14 18 24 25 30 36 93 99 93 97 98 96 98 96 99 97 96 96 97 96 76 61 35 39 52 60 62 61
6 6 7 7 8 11 13 12 13 16 21 29 35 46 65 68 70 98 94 97 96 97 97 97 97 97 98 97 97 93 68 42 38 53 63 69 64 65
7 7 7 9 12 16 21 19 17 23 36 40 49 64 84 84 86 89 96 78 93 97 100 96 96 97 96 98 97 87 50 39 52 69 72 67 71 76
7 7 8 10 15 18 21 26 19 28 43 51 71 81 80 98 95 98 95 94 93 99 98 96 96 96 96 96 97 94 42 50 71 77 69 73 88 86
8 9 10 14 19 25 29 31 21 25 47 59 83 88 84 81 89 96 98 96 96 96 95 95 96 96 96 96 95 52 55 68 86 84 80 63 62 56
10 12 17 24 28 34 35 36 23 28 50 60 86 92 85 88 91 85 92 93 95 95 96 96 96 96 96 96 95 89 61 93 96 94 92 71 54 50
16 18 23 30 38 38 37 39 32 36 58 62 81 94 87 86 90 95 96 98 99 95 96 96 96 96 96 96 96 92 79 96 96 95 93 63 58 60
20 23 29 39 42 44 44 46 43 47 60 63 82 93 95 92 91 95 96 97 96 96 96 95 96 95 96 96 96 95 94 95 96 96 95 86 66 46
25 27 36 44 48 52 51 54 53 60 66 69 82 91 96 94 91 95 97 97 96 96 95 95 94 95 94 98 99 95 93 96 96 94 90 94 90 43
32 34 43 48 53 56 58 61 61 64 66 74 87 90 96 97 94 96 97 96 96 96 96 95 96 97 95 93 97 97 95 96 96 96 95 95 92 49

GFSNE_700_rhum_123.txt.gz
RH
100 100 98 99 100 100 100 100 100 98 98 96 98 95 100 94 98 97 98 91 99 90 88 87 93 90 90 98 100 99 90 88 73 56 46 39 32 26
98 100 100 100 100 100 98 100 100 99 98 92 92 98 96 96 94 91 93 93 92 92 88 90 97 92 99 98 92 98 97 94 87 58 45 39 32 28
100 99 99 98 100 99 99 98 98 98 99 93 99 100 92 85 83 82 83 83 85 86 89 97 100 99 92 100 99 97 100 99 96 77 53 43 35 29
100 100 100 99 98 99 100 97 98 99 100 99 94 85 71 51 36 31 31 31 34 42 64 83 100 99 92 100 100 100 100 99 99 98 67 52 37 34
99 100 100 100 99 99 97 96 92 85 72 53 36 29 27 27 25 24 23 23 25 30 35 36 93 86 90 100 99 100 100 97 99 100 96 73 40 35
50 50 53 51 45 40 36 31 28 24 22 18 14 9 8 8 9 9 9 9 10 11 13 36 51 56 100 80 100 98 99 100 100 100 100 65 49 43
22 17 14 11 10 9 8 8 8 8 8 7 6 6 5 5 4 4 4 5 6 8 10 13 41 57 100 90 100 99 99 99 99 99 100 89 55 50
8 7 6 6 6 5 5 4 4 4 3 3 3 2 2 2 3 3 3 3 4 5 9 12 35 81 100 100 100 100 99 99 100 98 100 96 87 55
5 5 4 4 4 4 4 3 3 3 2 2 2 2 2 3 3 3 4 5 5 9 33 16 37 50 88 98 97 98 99 98 98 98 98 97 80 45
5 6 5 5 4 4 4 3 2 2 2 2 2 2 3 3 4 4 5 7 10 12 58 76 52 95 98 96 98 98 98 98 99 99 98 97 88 53
6 6 6 6 6 5 3 3 2 2 2 2 2 2 3 3 5 6 9 12 15 24 49 70 80 91 84 97 97 97 98 98 100 98 97 84 62 59
8 9 10 9 5 4 3 3 2 2 2 3 3 4 6 8 11 16 20 21 81 27 38 80 97 86 94 93 93 100 99 93 98 97 96 81 64 50
10 8 8 6 4 4 4 4 3 4 5 5 5 8 11 14 19 26 26 32 45 99 90 89 96 75 73 94 90 95 97 97 96 98 96 74 46 34
8 9 8 5 4 4 4 4 6 8 11 10 10 12 18 25 31 33 35 47 99 97 92 86 97 100 96 96 95 98 98 97 98 97 97 58 32 37
8 9 7 5 5 5 6 6 9 12 17 15 12 14 22 33 40 47 53 66 88 93 73 94 96 96 95 93 92 97 97 96 96 97 72 33 44 53
8 9 7 6 6 7 7 10 14 18 24 19 13 16 25 45 58 73 82 80 80 96 84 93 93 96 97 96 96 97 94 97 96 73 36 47 62 67
9 8 8 7 6 7 9 12 19 26 29 22 16 21 33 58 77 75 90 95 97 96 100 95 94 94 94 94 95 94 98 97 94 40 46 71 75 72
10 9 8 8 7 9 11 15 24 28 30 26 20 29 41 70 85 81 76 80 92 98 96 96 95 96 94 91 94 96 98 96 76 44 75 92 89 91
10 10 9 8 9 11 14 25 31 34 35 29 27 38 49 76 84 84 85 85 89 92 96 95 95 95 94 94 95 95 96 95 74 90 96 96 96 95
11 11 11 11 12 15 22 32 39 41 45 38 43 48 59 78 85 87 89 93 92 94 92 96 99 97 96 96 96 97 97 94 91 96 96 96 96 88
14 14 14 14 17 21 34 41 46 50 48 46 51 54 66 83 87 90 94 94 92 91 93 96 96 96 96 94 95 95 96 93 94 95 97 96 90 94
15 16 15 19 25 32 41 46 52 58 58 61 60 61 70 88 89 93 96 96 93 93 93 94 93 96 97 99 97 95 96 94 96 96 95 90 75 87
16 17 20 24 31 42 48 54 58 60 66 65 62 64 82 91 90 94 96 96 96 95 94 97 96 96 97 98 99 96 96 96 96 96 95 92 91 82